Time,TemperatureF,DewpointF,PressureIn,WindDirection,WindDirectionDegrees,WindSpeedMPH,WindSpeedGustMPH,Humidity,HourlyPrecipIn,Conditions,Clouds,dailyrainin,SoftwareType,DateUTC
2013-07-17 00:01:00,74.5,68.3,30.22,WSW,256,0.0,7.0,81,0.00,,,0.00,Wunderground v.1.15,2013-07-17 04:01:00,
2013-07-17 00:02:00,74.5,68.3,30.22,WSW,256,0.0,7.0,81,0.00,,,0.00,Wunderground v.1.15,2013-07-17 04:02:00,
2013-07-17 00:03:00,74.5,68.3,30.22,WSW,256,0.0,7.0,81,0.00,,,0.00,Wunderground v.1.15,2013-07-17 04:03:00,
2013-07-17 00:04:00,74.5,68.3,30.22,WSW,256,0.0,7.0,81,0.00,,,0.00,Wunderground v.1.15,2013-07-17 04:04:00,
2013-07-17 00:07:00,74.7,68.5,30.22,WSW,256,0.0,7.0,81,0.00,,,0.00,Wunderground v.1.15,2013-07-17 04:07:00,
2013-07-17 00:09:00,74.8,68.6,30.22,WSW,256,0.0,7.0,81,0.00,,,0.00,Wunderground v.1.15,2013-07-17 04:09:00,
2013-07-17 00:10:00,74.8,68.6,30.22,WSW,256,0.0,7.0,81,0.00,,,0.00,Wunderground v.1.15,2013-07-17 04:10:00,
2013-07-17 00:12:00,74.8,68.2,30.22,WSW,256,0.0,7.0,80,0.00,,,0.00,Wunderground v.1.15,2013-07-17 04:12:00,
2013-07-17 00:13:00,74.8,68.2,30.22,WSW,256,0.0,7.0,80,0.00,,,0.00,Wunderground v.1.15,2013-07-17 04:13:00,
2013-07-17 00:15:00,74.9,68.7,30.22,WSW,256,0.0,7.0,81,0.00,,,0.00,Wunderground v.1.15,2013-07-17 04:15:00,
2013-07-17 00:17:00,74.9,68.7,30.22,WSW,256,0.0,7.0,81,0.00,,,0.00,Wunderground v.1.15,2013-07-17 04:17:00,
2013-07-17 00:18:00,75.0,68.8,30.22,WSW,256,0.0,7.0,81,0.00,,,0.00,Wunderground v.1.15,2013-07-17 04:18:00,
2013-07-17 00:20:00,75.1,68.9,30.21,WSW,256,0.0,7.0,81,0.00,,,0.00,Wunderground v.1.15,2013-07-17 04:20:00,
2013-07-17 00:21:00,75.1,68.9,30.21,WSW,257,0.0,7.0,81,0.00,,,0.00,Wunderground v.1.15,2013-07-17 04:21:00,
2013-07-17 00:22:00,75.1,68.5,30.22,WSW,256,0.0,7.0,80,0.00,,,0.00,Wunderground v.1.15,2013-07-17 04:22:00,
2013-07-17 00:23:00,75.0,68.8,30.22,WSW,256,0.0,7.0,81,0.00,,,0.00,Wunderground v.1.15,2013-07-17 04:23:00,
2013-07-17 00:27:00,75.0,68.8,30.21,WSW,257,0.0,7.0,81,0.00,,,0.00,Wunderground v.1.15,2013-07-17 04:27:00,
2013-07-17 00:29:00,74.9,68.7,30.22,WSW,256,0.0,7.0,81,0.00,,,0.00,Wunderground v.1.15,2013-07-17 04:29:00,
2013-07-17 00:31:00,74.8,68.6,30.21,WSW,256,0.0,7.0,81,0.00,,,0.00,Wunderground v.1.15,2013-07-17 04:31:00,
2013-07-17 00:33:00,74.7,68.8,30.21,WSW,256,0.0,7.0,82,0.00,,,0.00,Wunderground v.1.15,2013-07-17 04:33:00,
2013-07-17 00:37:00,74.7,69.2,30.21,WSW,256,0.0,7.0,83,0.00,,,0.00,Wunderground v.1.15,2013-07-17 04:37:00,
2013-07-17 00:39:00,74.8,69.3,30.21,WSW,256,0.0,7.0,83,0.00,,,0.00,Wunderground v.1.15,2013-07-17 04:39:00,
2013-07-17 00:40:00,74.7,69.2,30.21,WSW,256,0.0,7.0,83,0.00,,,0.00,Wunderground v.1.15,2013-07-17 04:40:00,
2013-07-17 00:43:00,74.7,69.2,30.21,WSW,256,0.0,7.0,83,0.00,,,0.00,Wunderground v.1.15,2013-07-17 04:43:00,
2013-07-17 00:45:00,74.7,69.2,30.21,WSW,256,0.0,7.0,83,0.00,,,0.00,Wunderground v.1.15,2013-07-17 04:45:00,
2013-07-17 00:46:00,74.6,69.1,30.21,WSW,256,0.0,7.0,83,0.00,,,0.00,Wunderground v.1.15,2013-07-17 04:46:00,
2013-07-17 00:47:00,74.6,69.1,30.21,WSW,256,0.0,7.0,83,0.00,,,0.00,Wunderground v.1.15,2013-07-17 04:47:00,
2013-07-17 00:49:00,74.6,69.1,30.21,WSW,256,0.0,7.0,83,0.00,,,0.00,Wunderground v.1.15,2013-07-17 04:49:00,
2013-07-17 00:54:00,74.5,69.3,30.21,WSW,256,0.0,7.0,84,0.00,,,0.00,Wunderground v.1.15,2013-07-17 04:54:00,
2013-07-17 00:56:00,74.4,69.2,30.21,WSW,256,0.0,7.0,84,0.00,,,0.00,Wunderground v.1.15,2013-07-17 04:56:00,
2013-07-17 00:57:00,74.4,69.2,30.21,WSW,256,0.0,7.0,84,0.00,,,0.00,Wunderground v.1.15,2013-07-17 04:57:00,
2013-07-17 01:00:00,74.4,69.6,30.21,SW,232,0.0,7.0,85,0.00,,,0.00,Wunderground v.1.15,2013-07-17 05:00:00,
2013-07-17 01:03:00,74.5,69.7,30.21,SW,231,0.0,7.0,85,0.00,,,0.00,Wunderground v.1.15,2013-07-17 05:03:00,
2013-07-17 01:05:00,74.5,69.7,30.21,SW,231,0.0,7.0,85,0.00,,,0.00,Wunderground v.1.15,2013-07-17 05:05:00,
2013-07-17 01:06:00,74.5,69.7,30.21,SW,231,0.0,7.0,85,0.00,,,0.00,Wunderground v.1.15,2013-07-17 05:06:00,
2013-07-17 01:09:00,74.5,69.7,30.21,SW,231,0.0,7.0,85,0.00,,,0.00,Wunderground v.1.15,2013-07-17 05:09:00,
2013-07-17 01:11:00,74.5,69.7,30.21,SW,231,0.0,7.0,85,0.00,,,0.00,Wunderground v.1.15,2013-07-17 05:11:00,
2013-07-17 01:14:00,74.4,69.6,30.21,SW,231,0.0,7.0,85,0.00,,,0.00,Wunderground v.1.15,2013-07-17 05:14:00,
2013-07-17 01:15:00,74.4,69.9,30.21,SW,231,0.0,7.0,86,0.00,,,0.00,Wunderground v.1.15,2013-07-17 05:15:00,
2013-07-17 01:16:00,74.5,70.0,30.20,SW,231,0.0,7.0,86,0.00,,,0.00,Wunderground v.1.15,2013-07-17 05:16:00,
2013-07-17 01:17:00,74.4,69.9,30.20,SW,231,0.0,7.0,86,0.00,,,0.00,Wunderground v.1.15,2013-07-17 05:17:00,
2013-07-17 01:19:00,74.5,70.0,30.20,SW,231,0.0,7.0,86,0.00,,,0.00,Wunderground v.1.15,2013-07-17 05:19:00,
2013-07-17 01:20:00,74.5,70.0,30.20,SW,231,0.0,7.0,86,0.00,,,0.00,Wunderground v.1.15,2013-07-17 05:20:00,
2013-07-17 01:21:00,74.5,70.0,30.20,SW,231,0.0,7.0,86,0.00,,,0.00,Wunderground v.1.15,2013-07-17 05:21:00,
2013-07-17 01:24:00,74.6,70.5,30.21,SW,231,0.0,7.0,87,0.00,,,0.00,Wunderground v.1.15,2013-07-17 05:24:00,
2013-07-17 01:25:00,74.6,70.1,30.21,SW,231,0.0,7.0,86,0.00,,,0.00,Wunderground v.1.15,2013-07-17 05:25:00,
2013-07-17 01:28:00,74.6,70.1,30.20,SW,232,0.0,7.0,86,0.00,,,0.00,Wunderground v.1.15,2013-07-17 05:28:00,
2013-07-17 01:29:00,74.6,70.1,30.20,SW,232,0.0,7.0,86,0.00,,,0.00,Wunderground v.1.15,2013-07-17 05:29:00,
2013-07-17 01:30:00,74.6,70.1,30.20,SW,232,0.0,7.0,86,0.00,,,0.00,Wunderground v.1.15,2013-07-17 05:30:00,
2013-07-17 01:31:00,74.6,70.5,30.20,SW,232,0.0,7.0,87,0.00,,,0.00,Wunderground v.1.15,2013-07-17 05:31:00,
2013-07-17 01:32:00,74.6,70.1,30.20,SW,232,0.0,7.0,86,0.00,,,0.00,Wunderground v.1.15,2013-07-17 05:32:00,
2013-07-17 01:35:00,74.5,70.4,30.20,SW,232,0.0,7.0,87,0.00,,,0.00,Wunderground v.1.15,2013-07-17 05:35:00,
2013-07-17 01:37:00,74.5,70.4,30.20,SW,233,0.0,7.0,87,0.00,,,0.00,Wunderground v.1.15,2013-07-17 05:37:00,
2013-07-17 01:39:00,74.5,70.4,30.20,SW,232,0.0,7.0,87,0.00,,,0.00,Wunderground v.1.15,2013-07-17 05:39:00,
2013-07-17 01:40:00,74.5,70.4,30.20,SW,232,0.0,7.0,87,0.00,,,0.00,Wunderground v.1.15,2013-07-17 05:40:00,
2013-07-17 01:41:00,74.6,70.5,30.20,SW,232,0.0,7.0,87,0.00,,,0.00,Wunderground v.1.15,2013-07-17 05:41:00,
2013-07-17 01:42:00,74.6,70.5,30.20,SW,232,0.0,7.0,87,0.00,,,0.00,Wunderground v.1.15,2013-07-17 05:42:00,
2013-07-17 01:45:00,74.6,70.8,30.20,SW,232,0.0,7.0,88,0.00,,,0.00,Wunderground v.1.15,2013-07-17 05:45:00,
2013-07-17 01:46:00,74.7,70.9,30.20,SW,233,0.0,7.0,88,0.00,,,0.00,Wunderground v.1.15,2013-07-17 05:46:00,
2013-07-17 01:48:00,74.8,71.0,30.20,SW,233,0.0,7.0,88,0.00,,,0.00,Wunderground v.1.15,2013-07-17 05:48:00,
2013-07-17 01:49:00,74.8,70.7,30.20,SW,232,0.0,7.0,87,0.00,,,0.00,Wunderground v.1.15,2013-07-17 05:49:00,
2013-07-17 01:51:00,74.9,71.1,30.20,SW,232,0.0,7.0,88,0.00,,,0.00,Wunderground v.1.15,2013-07-17 05:51:00,
2013-07-17 01:53:00,74.9,70.8,30.20,SW,232,0.0,7.0,87,0.00,,,0.00,Wunderground v.1.15,2013-07-17 05:53:00,
2013-07-17 01:58:00,75.0,71.2,30.20,SW,231,0.0,7.0,88,0.00,,,0.00,Wunderground v.1.15,2013-07-17 05:58:00,
2013-07-17 01:59:00,75.0,71.2,30.20,SW,231,0.0,7.0,88,0.00,,,0.00,Wunderground v.1.15,2013-07-17 05:59:00,
2013-07-17 02:00:00,75.1,71.3,30.20,SW,231,0.0,7.0,88,0.00,,,0.00,Wunderground v.1.15,2013-07-17 06:00:00,
2013-07-17 02:01:00,75.1,71.3,30.20,SW,231,0.0,7.0,88,0.00,,,0.00,Wunderground v.1.15,2013-07-17 06:01:00,
2013-07-17 02:02:00,75.1,71.0,30.20,SW,231,0.0,7.0,87,0.00,,,0.00,Wunderground v.1.15,2013-07-17 06:02:00,
2013-07-17 02:05:00,75.2,71.4,30.20,SW,233,0.0,7.0,88,0.00,,,0.00,Wunderground v.1.15,2013-07-17 06:05:00,
2013-07-17 02:07:00,75.2,71.4,30.20,SW,233,0.0,7.0,88,0.00,,,0.00,Wunderground v.1.15,2013-07-17 06:07:00,
2013-07-17 02:09:00,75.2,71.4,30.20,SW,233,0.0,7.0,88,0.00,,,0.00,Wunderground v.1.15,2013-07-17 06:09:00,
2013-07-17 02:10:00,75.2,71.4,30.20,SW,233,0.0,7.0,88,0.00,,,0.00,Wunderground v.1.15,2013-07-17 06:10:00,
2013-07-17 02:11:00,75.2,71.4,30.20,SW,233,0.0,7.0,88,0.00,,,0.00,Wunderground v.1.15,2013-07-17 06:11:00,
2013-07-17 02:13:00,75.2,71.4,30.20,SW,233,0.0,7.0,88,0.00,,,0.00,Wunderground v.1.15,2013-07-17 06:13:00,
2013-07-17 02:14:00,75.2,71.4,30.20,SW,233,0.0,7.0,88,0.00,,,0.00,Wunderground v.1.15,2013-07-17 06:14:00,
2013-07-17 02:19:00,75.2,71.4,30.20,SW,233,0.0,7.0,88,0.00,,,0.00,Wunderground v.1.15,2013-07-17 06:19:00,
2013-07-17 02:20:00,75.2,71.4,30.20,SW,233,0.0,7.0,88,0.00,,,0.00,Wunderground v.1.15,2013-07-17 06:20:00,
2013-07-17 02:21:00,75.2,71.4,30.20,SW,215,0.0,7.0,88,0.00,,,0.00,Wunderground v.1.15,2013-07-17 06:21:00,
2013-07-17 02:22:00,75.2,71.4,30.20,SW,217,0.0,7.0,88,0.00,,,0.00,Wunderground v.1.15,2013-07-17 06:22:00,
2013-07-17 02:26:00,75.3,71.5,30.20,SW,217,0.0,7.0,88,0.00,,,0.00,Wunderground v.1.15,2013-07-17 06:26:00,
2013-07-17 02:27:00,75.3,71.5,30.20,SW,216,0.0,7.0,88,0.00,,,0.00,Wunderground v.1.15,2013-07-17 06:27:00,
2013-07-17 02:30:00,75.4,71.6,30.20,SW,224,0.0,7.0,88,0.00,,,0.00,Wunderground v.1.15,2013-07-17 06:30:00,
2013-07-17 02:31:00,75.5,71.4,30.20,SW,225,0.0,7.0,87,0.00,,,0.00,Wunderground v.1.15,2013-07-17 06:31:00,
2013-07-17 02:33:00,75.5,71.4,30.20,SW,225,0.0,7.0,87,0.00,,,0.00,Wunderground v.1.15,2013-07-17 06:33:00,
2013-07-17 02:38:00,75.6,71.5,30.20,SW,225,0.0,7.0,87,0.00,,,0.00,Wunderground v.1.15,2013-07-17 06:38:00,
2013-07-17 02:39:00,75.6,71.5,30.20,SW,225,0.0,7.0,87,0.00,,,0.00,Wunderground v.1.15,2013-07-17 06:39:00,
2013-07-17 02:40:00,75.6,71.5,30.20,SW,225,0.0,7.0,87,0.00,,,0.00,Wunderground v.1.15,2013-07-17 06:40:00,
2013-07-17 02:46:00,75.6,71.5,30.20,SW,225,0.0,7.0,87,0.00,,,0.00,Wunderground v.1.15,2013-07-17 06:46:00,
2013-07-17 02:47:00,75.6,71.5,30.20,SW,225,0.0,7.0,87,0.00,,,0.00,Wunderground v.1.15,2013-07-17 06:47:00,
2013-07-17 02:49:00,75.6,71.5,30.19,SW,224,0.0,7.0,87,0.00,,,0.00,Wunderground v.1.15,2013-07-17 06:49:00,
2013-07-17 02:50:00,75.6,71.5,30.19,SW,225,0.0,7.0,87,0.00,,,0.00,Wunderground v.1.15,2013-07-17 06:50:00,
2013-07-17 02:52:00,75.6,71.5,30.19,SW,226,0.0,7.0,87,0.00,,,0.00,Wunderground v.1.15,2013-07-17 06:52:00,
2013-07-17 02:53:00,75.6,71.5,30.19,SW,226,0.0,7.0,87,0.00,,,0.00,Wunderground v.1.15,2013-07-17 06:53:00,
2013-07-17 02:57:00,75.6,71.5,30.19,SW,221,0.0,7.0,87,0.00,,,0.00,Wunderground v.1.15,2013-07-17 06:57:00,
2013-07-17 02:58:00,75.6,71.5,30.19,SW,221,0.0,7.0,87,0.00,,,0.00,Wunderground v.1.15,2013-07-17 06:58:00,
2013-07-17 02:59:00,75.6,71.5,30.19,SW,221,0.0,7.0,87,0.00,,,0.00,Wunderground v.1.15,2013-07-17 06:59:00,
2013-07-17 03:00:00,75.6,71.5,30.19,SW,221,0.0,7.0,87,0.00,,,0.00,Wunderground v.1.15,2013-07-17 07:00:00,
2013-07-17 03:03:00,75.5,71.7,30.19,SW,221,0.0,7.0,88,0.00,,,0.00,Wunderground v.1.15,2013-07-17 07:03:00,
2013-07-17 03:04:00,75.5,71.7,30.19,SW,221,0.0,7.0,88,0.00,,,0.00,Wunderground v.1.15,2013-07-17 07:04:00,
2013-07-17 03:07:00,75.5,71.7,30.19,SW,221,0.0,7.0,88,0.00,,,0.00,Wunderground v.1.15,2013-07-17 07:07:00,
2013-07-17 03:08:00,75.4,71.6,30.19,SW,221,0.0,7.0,88,0.00,,,0.00,Wunderground v.1.15,2013-07-17 07:08:00,
2013-07-17 03:09:00,75.4,71.6,30.19,SW,221,0.0,7.0,88,0.00,,,0.00,Wunderground v.1.15,2013-07-17 07:09:00,
2013-07-17 03:13:00,75.2,71.4,30.19,SW,221,0.0,7.0,88,0.00,,,0.00,Wunderground v.1.15,2013-07-17 07:13:00,
2013-07-17 03:14:00,75.2,71.4,30.19,SW,221,0.0,7.0,88,0.00,,,0.00,Wunderground v.1.15,2013-07-17 07:14:00,
2013-07-17 03:16:00,75.1,71.3,30.19,SW,221,0.0,7.0,88,0.00,,,0.00,Wunderground v.1.15,2013-07-17 07:16:00,
2013-07-17 03:17:00,75.1,71.6,30.19,SW,221,0.0,7.0,89,0.00,,,0.00,Wunderground v.1.15,2013-07-17 07:17:00,
2013-07-17 03:19:00,75.1,71.6,30.19,SW,221,0.0,7.0,89,0.00,,,0.00,Wunderground v.1.15,2013-07-17 07:19:00,
2013-07-17 03:20:00,75.1,71.6,30.19,SW,221,0.0,7.0,89,0.00,,,0.00,Wunderground v.1.15,2013-07-17 07:20:00,
2013-07-17 03:22:00,75.0,71.5,30.19,SW,219,0.0,7.0,89,0.00,,,0.00,Wunderground v.1.15,2013-07-17 07:22:00,
2013-07-17 03:25:00,75.0,71.5,30.19,SW,219,0.0,7.0,89,0.00,,,0.00,Wunderground v.1.15,2013-07-17 07:25:00,
2013-07-17 03:27:00,74.9,71.8,30.19,SW,219,0.0,7.0,90,0.00,,,0.00,Wunderground v.1.15,2013-07-17 07:27:00,
2013-07-17 03:29:00,74.9,71.8,30.20,SW,219,0.0,7.0,90,0.00,,,0.00,Wunderground v.1.15,2013-07-17 07:29:00,
2013-07-17 03:31:00,74.9,71.8,30.20,SW,219,0.0,7.0,90,0.00,,,0.00,Wunderground v.1.15,2013-07-17 07:31:00,
2013-07-17 03:33:00,74.9,71.8,30.19,SW,219,0.0,7.0,90,0.00,,,0.00,Wunderground v.1.15,2013-07-17 07:33:00,
2013-07-17 03:35:00,74.8,71.7,30.19,SW,219,0.0,7.0,90,0.00,,,0.00,Wunderground v.1.15,2013-07-17 07:35:00,
2013-07-17 03:38:00,74.8,71.7,30.20,SW,219,0.0,7.0,90,0.00,,,0.00,Wunderground v.1.15,2013-07-17 07:38:00,
2013-07-17 03:39:00,74.8,71.7,30.20,SW,219,0.0,7.0,90,0.00,,,0.00,Wunderground v.1.15,2013-07-17 07:39:00,
2013-07-17 03:40:00,74.8,71.7,30.20,SW,219,0.0,7.0,90,0.00,,,0.00,Wunderground v.1.15,2013-07-17 07:40:00,
2013-07-17 03:42:00,74.9,71.8,30.19,SW,219,0.0,7.0,90,0.00,,,0.00,Wunderground v.1.15,2013-07-17 07:42:00,
2013-07-17 03:45:00,74.8,71.7,30.20,SW,219,0.0,7.0,90,0.00,,,0.00,Wunderground v.1.15,2013-07-17 07:45:00,
2013-07-17 03:46:00,74.8,71.7,30.20,SW,219,0.0,7.0,90,0.00,,,0.00,Wunderground v.1.15,2013-07-17 07:46:00,
2013-07-17 03:48:00,74.8,71.7,30.20,SW,219,0.0,7.0,90,0.00,,,0.00,Wunderground v.1.15,2013-07-17 07:48:00,
2013-07-17 03:49:00,74.8,71.7,30.20,SW,219,0.0,7.0,90,0.00,,,0.00,Wunderground v.1.15,2013-07-17 07:49:00,
2013-07-17 03:50:00,74.8,71.7,30.20,SW,219,0.0,7.0,90,0.00,,,0.00,Wunderground v.1.15,2013-07-17 07:50:00,
2013-07-17 03:52:00,74.8,71.7,30.20,SW,219,0.0,7.0,90,0.00,,,0.00,Wunderground v.1.15,2013-07-17 07:52:00,
2013-07-17 03:53:00,74.8,72.0,30.20,SW,219,0.0,7.0,91,0.00,,,0.00,Wunderground v.1.15,2013-07-17 07:53:00,
2013-07-17 03:54:00,74.9,72.1,30.20,SW,219,0.0,7.0,91,0.00,,,0.00,Wunderground v.1.15,2013-07-17 07:54:00,
2013-07-17 03:55:00,74.8,71.7,30.20,SW,219,0.0,7.0,90,0.00,,,0.00,Wunderground v.1.15,2013-07-17 07:55:00,
2013-07-17 03:57:00,74.9,71.8,30.20,SW,219,0.0,7.0,90,0.00,,,0.00,Wunderground v.1.15,2013-07-17 07:57:00,
2013-07-17 03:58:00,74.9,71.8,30.20,SW,219,0.0,7.0,90,0.00,,,0.00,Wunderground v.1.15,2013-07-17 07:58:00,
2013-07-17 03:59:00,74.9,71.8,30.20,SW,219,0.0,7.0,90,0.00,,,0.00,Wunderground v.1.15,2013-07-17 07:59:00,
2013-07-17 04:00:00,74.9,71.8,30.20,SW,219,0.0,0.0,90,0.00,,,0.00,Wunderground v.1.15,2013-07-17 08:00:00,
2013-07-17 04:04:00,74.9,71.8,30.20,SW,219,0.0,0.0,90,0.00,,,0.00,Wunderground v.1.15,2013-07-17 08:04:00,
2013-07-17 04:05:00,74.9,71.8,30.20,SW,221,0.0,1.0,90,0.00,,,0.00,Wunderground v.1.15,2013-07-17 08:05:00,
2013-07-17 04:10:00,75.0,71.9,30.20,SW,225,0.0,0.0,90,0.00,,,0.00,Wunderground v.1.15,2013-07-17 08:10:00,
2013-07-17 04:11:00,75.0,71.9,30.19,SW,225,0.0,0.0,90,0.00,,,0.00,Wunderground v.1.15,2013-07-17 08:11:00,
2013-07-17 04:14:00,75.0,71.9,30.20,SW,225,0.0,0.0,90,0.00,,,0.00,Wunderground v.1.15,2013-07-17 08:14:00,
2013-07-17 04:18:00,75.0,71.9,30.19,SW,226,0.0,0.0,90,0.00,,,0.00,Wunderground v.1.15,2013-07-17 08:18:00,
2013-07-17 04:19:00,75.0,71.9,30.19,SW,226,0.0,0.0,90,0.00,,,0.00,Wunderground v.1.15,2013-07-17 08:19:00,
2013-07-17 04:20:00,75.0,71.9,30.19,SW,226,0.0,0.0,90,0.00,,,0.00,Wunderground v.1.15,2013-07-17 08:20:00,
2013-07-17 04:21:00,75.0,71.9,30.19,SW,226,0.0,0.0,90,0.00,,,0.00,Wunderground v.1.15,2013-07-17 08:21:00,
2013-07-17 04:23:00,75.0,71.9,30.20,SW,226,0.0,0.0,90,0.00,,,0.00,Wunderground v.1.15,2013-07-17 08:23:00,
2013-07-17 04:26:00,75.0,71.9,30.20,SW,226,0.0,0.0,90,0.00,,,0.00,Wunderground v.1.15,2013-07-17 08:26:00,
2013-07-17 04:27:00,75.0,71.9,30.20,SW,226,0.0,0.0,90,0.00,,,0.00,Wunderground v.1.15,2013-07-17 08:27:00,
2013-07-17 04:28:00,75.0,71.9,30.20,SW,226,0.0,0.0,90,0.00,,,0.00,Wunderground v.1.15,2013-07-17 08:28:00,
2013-07-17 04:30:00,75.0,71.9,30.19,SW,226,0.0,0.0,90,0.00,,,0.00,Wunderground v.1.15,2013-07-17 08:30:00,
2013-07-17 04:33:00,74.9,71.8,30.19,SW,226,0.0,0.0,90,0.00,,,0.00,Wunderground v.1.15,2013-07-17 08:33:00,
2013-07-17 04:34:00,74.9,71.8,30.19,SW,225,0.0,0.0,90,0.00,,,0.00,Wunderground v.1.15,2013-07-17 08:34:00,
2013-07-17 04:35:00,74.9,71.8,30.19,SW,225,0.0,0.0,90,0.00,,,0.00,Wunderground v.1.15,2013-07-17 08:35:00,
2013-07-17 04:38:00,75.0,71.9,30.19,SW,225,0.0,0.0,90,0.00,,,0.00,Wunderground v.1.15,2013-07-17 08:38:00,
2013-07-17 04:41:00,75.0,71.9,30.19,SW,225,0.0,0.0,90,0.00,,,0.00,Wunderground v.1.15,2013-07-17 08:41:00,
2013-07-17 04:42:00,75.0,71.9,30.19,SW,224,0.0,0.0,90,0.00,,,0.00,Wunderground v.1.15,2013-07-17 08:42:00,
2013-07-17 04:44:00,75.0,71.9,30.19,SW,224,0.0,0.0,90,0.00,,,0.00,Wunderground v.1.15,2013-07-17 08:44:00,
2013-07-17 04:47:00,75.1,71.6,30.19,SW,224,0.0,0.0,89,0.00,,,0.00,Wunderground v.1.15,2013-07-17 08:47:00,
2013-07-17 04:48:00,75.0,71.5,30.19,SW,224,0.0,0.0,89,0.00,,,0.00,Wunderground v.1.15,2013-07-17 08:48:00,
2013-07-17 04:53:00,75.0,71.9,30.19,SW,224,0.0,0.0,90,0.00,,,0.00,Wunderground v.1.15,2013-07-17 08:53:00,
2013-07-17 04:55:00,75.0,71.9,30.19,SW,224,0.0,0.0,90,0.00,,,0.00,Wunderground v.1.15,2013-07-17 08:55:00,
2013-07-17 04:56:00,75.0,71.9,30.19,SW,224,0.0,0.0,90,0.00,,,0.00,Wunderground v.1.15,2013-07-17 08:56:00,
2013-07-17 04:58:00,74.9,71.8,30.20,SW,224,0.0,0.0,90,0.00,,,0.00,Wunderground v.1.15,2013-07-17 08:58:00,
2013-07-17 04:59:00,74.9,71.8,30.20,SW,224,0.0,0.0,90,0.00,,,0.00,Wunderground v.1.15,2013-07-17 08:59:00,
2013-07-17 05:00:00,74.9,71.8,30.20,SW,224,0.0,0.0,90,0.00,,,0.00,Wunderground v.1.15,2013-07-17 09:00:00,
2013-07-17 05:02:00,74.9,71.8,30.19,SW,224,0.0,1.0,90,0.00,,,0.00,Wunderground v.1.15,2013-07-17 09:02:00,
2013-07-17 05:05:00,74.9,71.8,30.19,SW,224,0.0,1.0,90,0.00,,,0.00,Wunderground v.1.15,2013-07-17 09:05:00,
2013-07-17 05:06:00,74.9,71.8,30.19,SW,224,0.0,1.0,90,0.00,,,0.00,Wunderground v.1.15,2013-07-17 09:06:00,
2013-07-17 05:08:00,74.9,71.4,30.19,SW,224,0.0,1.0,89,0.00,,,0.00,Wunderground v.1.15,2013-07-17 09:08:00,
2013-07-17 05:11:00,74.8,71.3,30.19,SW,224,0.0,1.0,89,0.00,,,0.00,Wunderground v.1.15,2013-07-17 09:11:00,
2013-07-17 05:12:00,74.8,71.3,30.20,SW,224,0.0,1.0,89,0.00,,,0.00,Wunderground v.1.15,2013-07-17 09:12:00,
2013-07-17 05:14:00,74.8,71.3,30.19,SW,224,0.0,1.0,89,0.00,,,0.00,Wunderground v.1.15,2013-07-17 09:14:00,
2013-07-17 05:16:00,74.7,71.2,30.19,SW,224,0.0,1.0,89,0.00,,,0.00,Wunderground v.1.15,2013-07-17 09:16:00,
2013-07-17 05:18:00,74.6,71.1,30.19,SW,224,0.0,1.0,89,0.00,,,0.00,Wunderground v.1.15,2013-07-17 09:18:00,
2013-07-17 05:19:00,74.6,71.1,30.19,SW,224,0.0,1.0,89,0.00,,,0.00,Wunderground v.1.15,2013-07-17 09:19:00,
2013-07-17 05:21:00,74.5,71.0,30.20,SW,224,0.0,1.0,89,0.00,,,0.00,Wunderground v.1.15,2013-07-17 09:21:00,
2013-07-17 05:23:00,74.5,71.0,30.20,SW,224,0.0,1.0,89,0.00,,,0.00,Wunderground v.1.15,2013-07-17 09:23:00,
2013-07-17 05:26:00,74.5,71.0,30.20,SW,224,0.0,1.0,89,0.00,,,0.00,Wunderground v.1.15,2013-07-17 09:26:00,
2013-07-17 05:27:00,74.4,70.9,30.20,SW,224,0.0,1.0,89,0.00,,,0.00,Wunderground v.1.15,2013-07-17 09:27:00,
2013-07-17 05:29:00,74.4,70.9,30.20,SW,224,0.0,1.0,89,0.00,,,0.00,Wunderground v.1.15,2013-07-17 09:29:00,
2013-07-17 05:30:00,74.4,70.9,30.20,SW,224,0.0,1.0,89,0.00,,,0.00,Wunderground v.1.15,2013-07-17 09:30:00,
2013-07-17 05:32:00,74.4,70.9,30.20,SW,224,0.0,1.0,89,0.00,,,0.00,Wunderground v.1.15,2013-07-17 09:32:00,
2013-07-17 05:35:00,74.4,70.9,30.20,SW,224,0.0,1.0,89,0.00,,,0.00,Wunderground v.1.15,2013-07-17 09:35:00,
2013-07-17 05:38:00,74.3,70.8,30.20,SW,223,0.0,1.0,89,0.00,,,0.00,Wunderground v.1.15,2013-07-17 09:38:00,
2013-07-17 05:39:00,74.4,70.9,30.20,SW,224,0.0,1.0,89,0.00,,,0.00,Wunderground v.1.15,2013-07-17 09:39:00,
2013-07-17 05:40:00,74.3,70.8,30.20,SW,224,0.0,1.0,89,0.00,,,0.00,Wunderground v.1.15,2013-07-17 09:40:00,
2013-07-17 05:42:00,74.3,70.8,30.20,SW,224,0.0,1.0,89,0.00,,,0.00,Wunderground v.1.15,2013-07-17 09:42:00,
2013-07-17 05:43:00,74.3,70.8,30.20,SW,224,0.0,1.0,89,0.00,,,0.00,Wunderground v.1.15,2013-07-17 09:43:00,
2013-07-17 05:47:00,74.2,70.7,30.20,SW,224,0.0,1.0,89,0.00,,,0.00,Wunderground v.1.15,2013-07-17 09:47:00,
2013-07-17 05:48:00,74.1,70.6,30.20,SW,224,0.0,1.0,89,0.00,,,0.00,Wunderground v.1.15,2013-07-17 09:48:00,
2013-07-17 05:49:00,74.1,70.6,30.20,SW,224,0.0,1.0,89,0.00,,,0.00,Wunderground v.1.15,2013-07-17 09:49:00,
2013-07-17 05:50:00,74.1,70.6,30.20,SW,224,0.0,1.0,89,0.00,,,0.00,Wunderground v.1.15,2013-07-17 09:50:00,
2013-07-17 05:51:00,74.1,70.6,30.20,SW,224,0.0,1.0,89,0.00,,,0.00,Wunderground v.1.15,2013-07-17 09:51:00,
2013-07-17 05:54:00,74.0,70.9,30.21,SW,224,0.0,1.0,90,0.00,,,0.00,Wunderground v.1.15,2013-07-17 09:54:00,
2013-07-17 05:57:00,74.0,70.9,30.21,SW,223,0.0,1.0,90,0.00,,,0.00,Wunderground v.1.15,2013-07-17 09:57:00,
2013-07-17 05:58:00,73.9,70.5,30.21,SW,224,0.0,1.0,89,0.00,,,0.00,Wunderground v.1.15,2013-07-17 09:58:00,
2013-07-17 05:59:00,73.9,70.5,30.21,SW,224,0.0,1.0,89,0.00,,,0.00,Wunderground v.1.15,2013-07-17 09:59:00,
2013-07-17 06:00:00,73.9,70.5,30.21,SW,224,0.0,1.0,89,0.00,,,0.00,Wunderground v.1.15,2013-07-17 10:00:00,
2013-07-17 06:04:00,73.9,70.5,30.21,SW,224,0.0,1.0,89,0.00,,,0.00,Wunderground v.1.15,2013-07-17 10:04:00,
2013-07-17 06:05:00,73.8,70.4,30.21,SW,224,0.0,1.0,89,0.00,,,0.00,Wunderground v.1.15,2013-07-17 10:05:00,
2013-07-17 06:08:00,73.7,70.3,30.21,SW,224,0.0,1.0,89,0.00,,,0.00,Wunderground v.1.15,2013-07-17 10:08:00,
2013-07-17 06:10:00,73.7,70.3,30.21,SW,224,0.0,1.0,89,0.00,,,0.00,Wunderground v.1.15,2013-07-17 10:10:00,
2013-07-17 06:12:00,73.7,70.3,30.21,SW,224,0.0,1.0,89,0.00,,,0.00,Wunderground v.1.15,2013-07-17 10:12:00,
2013-07-17 06:13:00,73.6,70.2,30.21,SW,224,0.0,1.0,89,0.00,,,0.00,Wunderground v.1.15,2013-07-17 10:13:00,
2013-07-17 06:15:00,73.6,70.2,30.21,SW,224,0.0,1.0,89,0.00,,,0.00,Wunderground v.1.15,2013-07-17 10:15:00,
2013-07-17 06:16:00,73.6,70.2,30.21,SW,224,0.0,1.0,89,0.00,,,0.00,Wunderground v.1.15,2013-07-17 10:16:00,
2013-07-17 06:18:00,73.6,70.2,30.21,SW,224,0.0,1.0,89,0.00,,,0.00,Wunderground v.1.15,2013-07-17 10:18:00,
2013-07-17 06:19:00,73.6,70.2,30.21,SW,224,0.0,1.0,89,0.00,,,0.00,Wunderground v.1.15,2013-07-17 10:19:00,
2013-07-17 06:22:00,73.6,70.2,30.21,SW,224,0.0,1.0,89,0.00,,,0.00,Wunderground v.1.15,2013-07-17 10:22:00,
2013-07-17 06:23:00,73.6,70.2,30.21,SW,224,0.0,1.0,89,0.00,,,0.00,Wunderground v.1.15,2013-07-17 10:23:00,
2013-07-17 06:25:00,73.6,70.2,30.21,SW,224,0.0,1.0,89,0.00,,,0.00,Wunderground v.1.15,2013-07-17 10:25:00,
2013-07-17 06:28:00,73.6,70.2,30.21,SW,224,0.0,1.0,89,0.00,,,0.00,Wunderground v.1.15,2013-07-17 10:28:00,
2013-07-17 06:30:00,73.7,70.6,30.21,SW,224,0.0,1.0,90,0.00,,,0.00,Wunderground v.1.15,2013-07-17 10:30:00,
2013-07-17 06:31:00,73.7,70.3,30.22,SW,224,0.0,1.0,89,0.00,,,0.00,Wunderground v.1.15,2013-07-17 10:31:00,
2013-07-17 06:32:00,73.7,70.3,30.22,SW,224,0.0,1.0,89,0.00,,,0.00,Wunderground v.1.15,2013-07-17 10:32:00,
2013-07-17 06:37:00,73.9,70.5,30.22,SW,223,0.0,1.0,89,0.00,,,0.00,Wunderground v.1.15,2013-07-17 10:37:00,
2013-07-17 06:39:00,74.0,70.6,30.22,SW,224,0.0,1.0,89,0.00,,,0.00,Wunderground v.1.15,2013-07-17 10:39:00,
2013-07-17 06:40:00,74.1,70.6,30.22,SW,223,0.0,1.0,89,0.00,,,0.00,Wunderground v.1.15,2013-07-17 10:40:00,
2013-07-17 06:41:00,74.2,70.7,30.22,SW,224,0.0,1.0,89,0.00,,,0.00,Wunderground v.1.15,2013-07-17 10:41:00,
2013-07-17 06:44:00,74.5,71.0,30.22,WSW,256,0.0,1.0,89,0.00,,,0.00,Wunderground v.1.15,2013-07-17 10:44:00,
2013-07-17 06:46:00,74.7,71.2,30.22,WSW,256,0.0,1.0,89,0.00,,,0.00,Wunderground v.1.15,2013-07-17 10:46:00,
2013-07-17 06:47:00,74.8,71.3,30.22,WSW,257,0.0,1.0,89,0.00,,,0.00,Wunderground v.1.15,2013-07-17 10:47:00,
2013-07-17 06:52:00,75.4,71.6,30.22,SW,225,0.0,1.0,88,0.00,,,0.00,Wunderground v.1.15,2013-07-17 10:52:00,
2013-07-17 06:53:00,75.5,71.7,30.22,SW,225,0.0,1.0,88,0.00,,,0.00,Wunderground v.1.15,2013-07-17 10:53:00,
2013-07-17 06:54:00,75.6,71.8,30.22,WSW,250,0.0,1.0,88,0.00,,,0.00,Wunderground v.1.15,2013-07-17 10:54:00,
2013-07-17 06:57:00,75.9,71.8,30.22,West,278,0.0,1.0,87,0.00,,,0.00,Wunderground v.1.15,2013-07-17 10:57:00,
2013-07-17 06:58:00,76.0,71.8,30.22,SW,224,0.0,1.0,87,0.00,,,0.00,Wunderground v.1.15,2013-07-17 10:58:00,
2013-07-17 07:00:00,76.2,72.0,30.22,SW,224,0.0,1.0,87,0.00,,,0.00,Wunderground v.1.15,2013-07-17 11:00:00,
2013-07-17 07:02:00,76.4,72.2,30.22,WSW,246,0.0,1.0,87,0.00,,,0.00,Wunderground v.1.15,2013-07-17 11:02:00,
2013-07-17 07:04:00,76.5,72.3,30.22,SW,230,0.0,1.0,87,0.00,,,0.00,Wunderground v.1.15,2013-07-17 11:04:00,
2013-07-17 07:05:00,76.6,72.4,30.22,SW,225,0.0,1.0,87,0.00,,,0.00,Wunderground v.1.15,2013-07-17 11:05:00,
2013-07-17 07:06:00,76.7,72.5,30.22,SW,233,0.0,1.0,87,0.00,,,0.00,Wunderground v.1.15,2013-07-17 11:06:00,
2013-07-17 07:08:00,76.9,72.4,30.22,SW,233,0.0,1.0,86,0.00,,,0.00,Wunderground v.1.15,2013-07-17 11:08:00,
2013-07-17 07:10:00,77.1,72.9,30.22,SW,233,0.0,1.0,87,0.00,,,0.00,Wunderground v.1.15,2013-07-17 11:10:00,
2013-07-17 07:12:00,77.3,72.8,30.22,SW,233,0.0,1.0,86,0.00,,,0.00,Wunderground v.1.15,2013-07-17 11:12:00,
2013-07-17 07:13:00,77.4,72.9,30.22,SW,233,0.0,1.0,86,0.00,,,0.00,Wunderground v.1.15,2013-07-17 11:13:00,
2013-07-17 07:14:00,77.5,73.0,30.22,SW,233,0.0,1.0,86,0.00,,,0.00,Wunderground v.1.15,2013-07-17 11:14:00,
2013-07-17 07:16:00,77.6,73.1,30.22,SW,231,0.0,1.0,86,0.00,,,0.00,Wunderground v.1.15,2013-07-17 11:16:00,
2013-07-17 07:19:00,77.9,73.0,30.22,SW,232,0.0,1.0,85,0.00,,,0.00,Wunderground v.1.15,2013-07-17 11:19:00,
2013-07-17 07:22:00,78.1,73.2,30.22,WSW,240,0.0,2.0,85,0.00,,,0.00,Wunderground v.1.15,2013-07-17 11:22:00,
2013-07-17 07:25:00,78.2,73.3,30.22,WSW,240,0.0,2.0,85,0.00,,,0.00,Wunderground v.1.15,2013-07-17 11:25:00,
2013-07-17 07:26:00,78.2,73.3,30.22,WSW,240,0.0,2.0,85,0.00,,,0.00,Wunderground v.1.15,2013-07-17 11:26:00,
2013-07-17 07:28:00,78.3,73.4,30.22,WSW,240,0.0,2.0,85,0.00,,,0.00,Wunderground v.1.15,2013-07-17 11:28:00,
2013-07-17 07:32:00,78.4,73.5,30.22,SW,232,0.0,1.0,85,0.00,,,0.00,Wunderground v.1.15,2013-07-17 11:32:00,
2013-07-17 07:33:00,78.4,73.5,30.22,SW,232,0.0,1.0,85,0.00,,,0.00,Wunderground v.1.15,2013-07-17 11:33:00,
2013-07-17 07:38:00,78.6,73.7,30.22,WSW,252,0.0,1.0,85,0.00,,,0.00,Wunderground v.1.15,2013-07-17 11:38:00,
2013-07-17 07:39:00,78.6,73.7,30.22,SW,226,0.0,1.0,85,0.00,,,0.00,Wunderground v.1.15,2013-07-17 11:39:00,
2013-07-17 07:44:00,78.6,73.7,30.21,SW,233,0.0,1.0,85,0.00,,,0.00,Wunderground v.1.15,2013-07-17 11:44:00,
2013-07-17 07:45:00,78.6,73.7,30.21,SW,233,0.0,1.0,85,0.00,,,0.00,Wunderground v.1.15,2013-07-17 11:45:00,
2013-07-17 07:46:00,78.6,73.7,30.21,SW,233,0.0,1.0,85,0.00,,,0.00,Wunderground v.1.15,2013-07-17 11:46:00,
2013-07-17 07:50:00,78.8,73.9,30.21,SW,225,0.0,1.0,85,0.00,,,0.00,Wunderground v.1.15,2013-07-17 11:50:00,
2013-07-17 07:51:00,78.9,74.0,30.21,SW,229,0.0,3.0,85,0.00,,,0.00,Wunderground v.1.15,2013-07-17 11:51:00,
2013-07-17 07:52:00,78.9,74.0,30.21,WSW,239,0.0,3.0,85,0.00,,,0.00,Wunderground v.1.15,2013-07-17 11:52:00,
2013-07-17 07:56:00,79.0,74.1,30.21,WSW,239,0.0,3.0,85,0.00,,,0.00,Wunderground v.1.15,2013-07-17 11:56:00,
2013-07-17 07:58:00,79.2,74.3,30.21,WSW,243,0.0,3.0,85,0.00,,,0.00,Wunderground v.1.15,2013-07-17 11:58:00,
2013-07-17 07:59:00,79.2,74.3,30.21,SW,219,0.0,3.0,85,0.00,,,0.00,Wunderground v.1.15,2013-07-17 11:59:00,
2013-07-17 08:00:00,79.2,73.9,30.21,SW,226,0.0,1.0,84,0.00,,,0.00,Wunderground v.1.15,2013-07-17 12:00:00,
2013-07-17 08:02:00,79.3,74.0,30.21,West,266,0.0,1.0,84,0.00,,,0.00,Wunderground v.1.15,2013-07-17 12:02:00,
2013-07-17 08:04:00,79.3,74.0,30.21,SW,221,0.0,1.0,84,0.00,,,0.00,Wunderground v.1.15,2013-07-17 12:04:00,
2013-07-17 08:06:00,79.5,74.6,30.21,WSW,239,0.0,1.0,85,0.00,,,0.00,Wunderground v.1.15,2013-07-17 12:06:00,
2013-07-17 08:09:00,79.8,74.9,30.21,WSW,238,0.0,1.0,85,0.00,,,0.00,Wunderground v.1.15,2013-07-17 12:09:00,
2013-07-17 08:10:00,79.9,74.6,30.21,SW,225,0.0,1.0,84,0.00,,,0.00,Wunderground v.1.15,2013-07-17 12:10:00,
2013-07-17 08:12:00,80.2,74.9,30.21,SW,226,0.0,1.0,84,0.00,,,0.00,Wunderground v.1.15,2013-07-17 12:12:00,
2013-07-17 08:13:00,80.4,75.1,30.21,SW,226,0.0,1.0,84,0.00,,,0.00,Wunderground v.1.15,2013-07-17 12:13:00,
2013-07-17 08:16:00,80.7,75.1,30.21,WSW,257,0.0,1.0,83,0.00,,,0.00,Wunderground v.1.15,2013-07-17 12:16:00,
2013-07-17 08:19:00,80.8,75.2,30.21,SSW,210,0.0,2.0,83,0.00,,,0.00,Wunderground v.1.15,2013-07-17 12:19:00,
2013-07-17 08:20:00,80.9,75.2,30.21,WNW,285,0.0,1.0,83,0.00,,,0.00,Wunderground v.1.15,2013-07-17 12:20:00,
2013-07-17 08:21:00,81.0,75.3,30.21,West,280,0.0,1.0,83,0.00,,,0.00,Wunderground v.1.15,2013-07-17 12:21:00,
2013-07-17 08:23:00,81.1,75.1,30.21,SW,215,1.0,1.0,82,0.00,,,0.00,Wunderground v.1.15,2013-07-17 12:23:00,
2013-07-17 08:26:00,81.2,75.2,30.21,WSW,238,1.0,1.0,82,0.00,,,0.00,Wunderground v.1.15,2013-07-17 12:26:00,
2013-07-17 08:27:00,81.3,75.3,30.21,WSW,253,1.0,1.0,82,0.00,,,0.00,Wunderground v.1.15,2013-07-17 12:27:00,
2013-07-17 08:29:00,81.4,75.4,30.21,SW,233,1.0,1.0,82,0.00,,,0.00,Wunderground v.1.15,2013-07-17 12:29:00,
2013-07-17 08:31:00,81.7,75.7,30.21,West,260,1.0,1.0,82,0.00,,,0.00,Wunderground v.1.15,2013-07-17 12:31:00,
2013-07-17 08:33:00,81.9,75.9,30.21,West,270,1.0,1.0,82,0.00,,,0.00,Wunderground v.1.15,2013-07-17 12:33:00,
2013-07-17 08:34:00,82.0,75.6,30.21,SW,228,1.0,1.0,81,0.00,,,0.00,Wunderground v.1.15,2013-07-17 12:34:00,
2013-07-17 08:35:00,82.1,75.7,30.21,West,262,1.0,1.0,81,0.00,,,0.00,Wunderground v.1.15,2013-07-17 12:35:00,
2013-07-17 08:39:00,82.5,75.7,30.20,West,259,0.0,1.0,80,0.00,,,0.00,Wunderground v.1.15,2013-07-17 12:39:00,
2013-07-17 08:40:00,82.6,75.8,30.20,WSW,248,0.0,1.0,80,0.00,,,0.00,Wunderground v.1.15,2013-07-17 12:40:00,
2013-07-17 08:41:00,82.7,76.3,30.21,WSW,248,0.0,1.0,81,0.00,,,0.00,Wunderground v.1.15,2013-07-17 12:41:00,
2013-07-17 08:44:00,83.1,76.3,30.21,SW,224,0.0,1.0,80,0.00,,,0.00,Wunderground v.1.15,2013-07-17 12:44:00,
2013-07-17 08:45:00,83.2,76.4,30.21,WSW,256,0.0,1.0,80,0.00,,,0.00,Wunderground v.1.15,2013-07-17 12:45:00,
2013-07-17 08:47:00,83.3,76.1,30.21,WSW,248,1.0,2.0,79,0.00,,,0.00,Wunderground v.1.15,2013-07-17 12:47:00,
2013-07-17 08:48:00,83.3,76.1,30.21,SSW,211,1.0,2.0,79,0.00,,,0.00,Wunderground v.1.15,2013-07-17 12:48:00,
2013-07-17 08:50:00,83.5,76.3,30.21,SW,214,1.0,1.0,79,0.00,,,0.00,Wunderground v.1.15,2013-07-17 12:50:00,
2013-07-17 08:51:00,83.6,76.4,30.21,SSW,211,1.0,3.0,79,0.00,,,0.00,Wunderground v.1.15,2013-07-17 12:51:00,
2013-07-17 08:55:00,83.6,76.4,30.21,SW,232,1.0,3.0,79,0.00,,,0.00,Wunderground v.1.15,2013-07-17 12:55:00,
2013-07-17 08:57:00,83.7,76.5,30.21,WSW,238,1.0,3.0,79,0.00,,,0.00,Wunderground v.1.15,2013-07-17 12:57:00,
2013-07-17 09:01:00,84.0,76.4,30.21,West,268,1.0,1.0,78,0.00,,,0.00,Wunderground v.1.15,2013-07-17 13:01:00,
2013-07-17 09:02:00,84.0,76.4,30.20,WSW,246,1.0,1.0,78,0.00,,,0.00,Wunderground v.1.15,2013-07-17 13:02:00,
2013-07-17 09:03:00,84.0,76.4,30.20,SW,221,1.0,2.0,78,0.00,,,0.00,Wunderground v.1.15,2013-07-17 13:03:00,
2013-07-17 09:04:00,84.0,76.4,30.20,SW,233,1.0,2.0,78,0.00,,,0.00,Wunderground v.1.15,2013-07-17 13:04:00,
2013-07-17 09:05:00,84.1,76.5,30.20,WSW,256,1.0,2.0,78,0.00,,,0.00,Wunderground v.1.15,2013-07-17 13:05:00,
2013-07-17 09:10:00,84.6,76.6,30.20,SW,217,1.0,1.0,77,0.00,,,0.00,Wunderground v.1.15,2013-07-17 13:10:00,
2013-07-17 09:11:00,84.6,76.6,30.20,WSW,258,1.0,1.0,77,0.00,,,0.00,Wunderground v.1.15,2013-07-17 13:11:00,
2013-07-17 09:12:00,84.7,76.7,30.20,WSW,239,1.0,1.0,77,0.00,,,0.00,Wunderground v.1.15,2013-07-17 13:12:00,
2013-07-17 09:13:00,84.8,76.8,30.20,SW,233,1.0,1.0,77,0.00,,,0.00,Wunderground v.1.15,2013-07-17 13:13:00,
2013-07-17 09:14:00,84.9,76.9,30.20,West,261,1.0,2.0,77,0.00,,,0.00,Wunderground v.1.15,2013-07-17 13:14:00,
2013-07-17 09:16:00,84.9,76.5,30.20,West,261,1.0,2.0,76,0.00,,,0.00,Wunderground v.1.15,2013-07-17 13:16:00,
2013-07-17 09:19:00,85.3,77.3,30.20,SSW,200,1.0,2.0,77,0.00,,,0.00,Wunderground v.1.15,2013-07-17 13:19:00,
2013-07-17 09:21:00,85.6,77.2,30.20,WSW,246,1.0,1.0,76,0.00,,,0.00,Wunderground v.1.15,2013-07-17 13:21:00,
2013-07-17 09:22:00,85.7,77.3,30.20,WSW,245,0.0,1.0,76,0.00,,,0.00,Wunderground v.1.15,2013-07-17 13:22:00,
2013-07-17 09:25:00,85.7,76.9,30.20,WSW,246,1.0,2.0,75,0.00,,,0.00,Wunderground v.1.15,2013-07-17 13:25:00,
2013-07-17 09:26:00,85.7,76.9,30.20,SW,214,1.0,2.0,75,0.00,,,0.00,Wunderground v.1.15,2013-07-17 13:26:00,
2013-07-17 09:29:00,85.7,76.9,30.20,WNW,288,1.0,3.0,75,0.00,,,0.00,Wunderground v.1.15,2013-07-17 13:29:00,
2013-07-17 09:30:00,85.7,76.5,30.20,WSW,255,1.0,2.0,74,0.00,,,0.00,Wunderground v.1.15,2013-07-17 13:30:00,
2013-07-17 09:32:00,85.7,76.9,30.20,WSW,253,1.0,2.0,75,0.00,,,0.00,Wunderground v.1.15,2013-07-17 13:32:00,
2013-07-17 09:34:00,85.8,77.4,30.20,SW,233,1.0,2.0,76,0.00,,,0.00,Wunderground v.1.15,2013-07-17 13:34:00,
2013-07-17 09:37:00,86.0,77.1,30.20,WSW,251,1.0,2.0,75,0.00,,,0.00,Wunderground v.1.15,2013-07-17 13:37:00,
2013-07-17 09:38:00,86.1,77.2,30.20,SW,217,1.0,2.0,75,0.00,,,0.00,Wunderground v.1.15,2013-07-17 13:38:00,
2013-07-17 09:42:00,86.5,77.2,30.20,SW,225,1.0,1.0,74,0.00,,,0.00,Wunderground v.1.15,2013-07-17 13:42:00,
2013-07-17 09:43:00,86.6,77.3,30.20,SW,224,1.0,1.0,74,0.00,,,0.00,Wunderground v.1.15,2013-07-17 13:43:00,
2013-07-17 09:45:00,86.8,77.5,30.20,SW,214,1.0,1.0,74,0.00,,,0.00,Wunderground v.1.15,2013-07-17 13:45:00,
2013-07-17 09:46:00,87.0,77.7,30.20,SW,214,1.0,1.0,74,0.00,,,0.00,Wunderground v.1.15,2013-07-17 13:46:00,
2013-07-17 09:50:00,87.4,77.3,30.20,WSW,242,1.0,1.0,72,0.00,,,0.00,Wunderground v.1.15,2013-07-17 13:50:00,
2013-07-17 09:51:00,87.5,77.4,30.20,WSW,240,1.0,1.0,72,0.00,,,0.00,Wunderground v.1.15,2013-07-17 13:51:00,
2013-07-17 09:52:00,87.6,77.5,30.20,WSW,238,1.0,1.0,72,0.00,,,0.00,Wunderground v.1.15,2013-07-17 13:52:00,
2013-07-17 09:53:00,87.7,77.1,30.20,WSW,250,1.0,1.0,71,0.00,,,0.00,Wunderground v.1.15,2013-07-17 13:53:00,
2013-07-17 09:56:00,87.7,77.1,30.20,WNW,285,1.0,2.0,71,0.00,,,0.00,Wunderground v.1.15,2013-07-17 13:56:00,
2013-07-17 09:57:00,87.8,77.2,30.20,WSW,238,1.0,2.0,71,0.00,,,0.00,Wunderground v.1.15,2013-07-17 13:57:00,
2013-07-17 09:59:00,87.9,77.3,30.20,SW,224,1.0,2.0,71,0.00,,,0.00,Wunderground v.1.15,2013-07-17 13:59:00,
2013-07-17 10:00:00,88.0,77.4,30.20,SW,224,1.0,2.0,71,0.00,,,0.00,Wunderground v.1.15,2013-07-17 14:00:00,
2013-07-17 10:05:00,88.1,76.6,30.20,SW,224,1.0,2.0,69,0.00,,,0.00,Wunderground v.1.15,2013-07-17 14:05:00,
2013-07-17 10:06:00,88.1,77.1,30.20,WSW,253,1.0,2.0,70,0.00,,,0.00,Wunderground v.1.15,2013-07-17 14:06:00,
2013-07-17 10:09:00,88.2,76.7,30.20,SW,233,1.0,2.0,69,0.00,,,0.00,Wunderground v.1.15,2013-07-17 14:09:00,
2013-07-17 10:10:00,88.2,76.7,30.20,SW,228,1.0,4.0,69,0.00,,,0.00,Wunderground v.1.15,2013-07-17 14:10:00,
2013-07-17 10:11:00,88.1,76.2,30.20,West,266,1.0,4.0,68,0.00,,,0.00,Wunderground v.1.15,2013-07-17 14:11:00,
2013-07-17 10:13:00,88.1,76.2,30.20,SW,231,1.0,4.0,68,0.00,,,0.00,Wunderground v.1.15,2013-07-17 14:13:00,
2013-07-17 10:17:00,88.4,76.0,30.20,SSW,212,1.0,4.0,67,0.00,,,0.00,Wunderground v.1.15,2013-07-17 14:17:00,
2013-07-17 10:19:00,88.6,76.2,30.19,SW,226,1.0,4.0,67,0.00,,,0.00,Wunderground v.1.15,2013-07-17 14:19:00,
2013-07-17 10:20:00,88.7,76.3,30.19,WSW,241,1.0,1.0,67,0.00,,,0.00,Wunderground v.1.15,2013-07-17 14:20:00,
2013-07-17 10:21:00,89.0,76.6,30.20,WNW,302,1.0,2.0,67,0.00,,,0.00,Wunderground v.1.15,2013-07-17 14:21:00,
2013-07-17 10:23:00,89.3,76.0,30.19,SW,226,1.0,2.0,65,0.00,,,0.00,Wunderground v.1.15,2013-07-17 14:23:00,
2013-07-17 10:26:00,89.5,75.7,30.20,SW,236,1.0,2.0,64,0.00,,,0.00,Wunderground v.1.15,2013-07-17 14:26:00,
2013-07-17 10:28:00,89.4,75.6,30.19,WSW,249,1.0,2.0,64,0.00,,,0.00,Wunderground v.1.15,2013-07-17 14:28:00,
2013-07-17 10:29:00,89.4,75.6,30.19,NNW,344,1.0,2.0,64,0.00,,,0.00,Wunderground v.1.15,2013-07-17 14:29:00,
2013-07-17 10:30:00,89.5,76.2,30.19,West,267,1.0,1.0,65,0.00,,,0.00,Wunderground v.1.15,2013-07-17 14:30:00,
2013-07-17 10:31:00,89.5,75.7,30.19,West,264,1.0,1.0,64,0.00,,,0.00,Wunderground v.1.15,2013-07-17 14:31:00,
2013-07-17 10:33:00,89.7,75.9,30.20,West,280,1.0,2.0,64,0.00,,,0.00,Wunderground v.1.15,2013-07-17 14:33:00,
2013-07-17 10:35:00,89.8,76.5,30.19,WSW,250,1.0,2.0,65,0.00,,,0.00,Wunderground v.1.15,2013-07-17 14:35:00,
2013-07-17 10:36:00,89.8,76.5,30.19,WSW,250,1.0,2.0,65,0.00,,,0.00,Wunderground v.1.15,2013-07-17 14:36:00,
2013-07-17 10:39:00,89.9,76.1,30.20,WSW,244,1.0,2.0,64,0.00,,,0.00,Wunderground v.1.15,2013-07-17 14:39:00,
2013-07-17 10:44:00,89.7,75.4,30.20,West,280,1.0,3.0,63,0.00,,,0.00,Wunderground v.1.15,2013-07-17 14:44:00,
2013-07-17 10:45:00,89.6,75.3,30.20,West,262,1.0,3.0,63,0.00,,,0.00,Wunderground v.1.15,2013-07-17 14:45:00,
2013-07-17 10:47:00,89.3,75.5,30.20,SW,226,2.0,3.0,64,0.00,,,0.00,Wunderground v.1.15,2013-07-17 14:47:00,
2013-07-17 10:49:00,89.1,74.9,30.19,West,263,2.0,3.0,63,0.00,,,0.00,Wunderground v.1.15,2013-07-17 14:49:00,
2013-07-17 10:52:00,89.0,75.2,30.19,WNW,282,2.0,4.0,64,0.00,,,0.00,Wunderground v.1.15,2013-07-17 14:52:00,
2013-07-17 10:53:00,89.0,75.7,30.19,SW,214,2.0,4.0,65,0.00,,,0.00,Wunderground v.1.15,2013-07-17 14:53:00,
2013-07-17 10:57:00,89.1,75.8,30.19,SSW,201,2.0,4.0,65,0.00,,,0.00,Wunderground v.1.15,2013-07-17 14:57:00,
2013-07-17 10:58:00,89.2,75.9,30.19,WSW,255,2.0,4.0,65,0.00,,,0.00,Wunderground v.1.15,2013-07-17 14:58:00,
2013-07-17 10:59:00,89.3,76.4,30.19,SW,226,2.0,4.0,66,0.00,,,0.00,Wunderground v.1.15,2013-07-17 14:59:00,
2013-07-17 11:00:00,89.5,76.6,30.19,SW,226,2.0,2.0,66,0.00,,,0.00,Wunderground v.1.15,2013-07-17 15:00:00,
2013-07-17 11:04:00,90.1,77.2,30.19,West,262,1.0,2.0,66,0.00,,,0.00,Wunderground v.1.15,2013-07-17 15:04:00,
2013-07-17 11:06:00,90.4,77.0,30.19,NW,325,1.0,2.0,65,0.00,,,0.00,Wunderground v.1.15,2013-07-17 15:06:00,
2013-07-17 11:07:00,90.5,76.7,30.19,West,280,1.0,3.0,64,0.00,,,0.00,Wunderground v.1.15,2013-07-17 15:07:00,
2013-07-17 11:08:00,90.5,77.6,30.19,West,264,1.0,3.0,66,0.00,,,0.00,Wunderground v.1.15,2013-07-17 15:08:00,
2013-07-17 11:11:00,90.7,76.8,30.19,WSW,245,2.0,4.0,64,0.00,,,0.00,Wunderground v.1.15,2013-07-17 15:11:00,
2013-07-17 11:12:00,90.5,76.7,30.19,West,262,2.0,4.0,64,0.00,,,0.00,Wunderground v.1.15,2013-07-17 15:12:00,
2013-07-17 11:14:00,90.2,76.8,30.19,WSW,239,2.0,4.0,65,0.00,,,0.00,Wunderground v.1.15,2013-07-17 15:14:00,
2013-07-17 11:15:00,90.1,76.7,30.19,WSW,249,2.0,4.0,65,0.00,,,0.00,Wunderground v.1.15,2013-07-17 15:15:00,
2013-07-17 11:19:00,90.5,78.9,30.18,SE,129,2.0,4.0,69,0.00,,,0.00,Wunderground v.1.15,2013-07-17 15:19:00,
2013-07-17 11:20:00,90.7,78.2,30.19,WNW,286,2.0,2.0,67,0.00,,,0.00,Wunderground v.1.15,2013-07-17 15:20:00,
2013-07-17 11:22:00,90.8,78.3,30.19,West,259,2.0,2.0,67,0.00,,,0.00,Wunderground v.1.15,2013-07-17 15:22:00,
2013-07-17 11:25:00,90.8,76.9,30.18,WSW,255,1.0,2.0,64,0.00,,,0.00,Wunderground v.1.15,2013-07-17 15:25:00,
2013-07-17 11:26:00,90.7,77.3,30.18,WSW,248,1.0,2.0,65,0.00,,,0.00,Wunderground v.1.15,2013-07-17 15:26:00,
2013-07-17 11:29:00,90.9,77.5,30.18,WNW,288,1.0,2.0,65,0.00,,,0.00,Wunderground v.1.15,2013-07-17 15:29:00,
2013-07-17 11:30:00,91.1,78.2,30.18,SE,134,1.0,1.0,66,0.00,,,0.00,Wunderground v.1.15,2013-07-17 15:30:00,
2013-07-17 11:32:00,91.7,78.7,30.18,West,276,1.0,3.0,66,0.00,,,0.00,Wunderground v.1.15,2013-07-17 15:32:00,
2013-07-17 11:35:00,92.1,78.2,30.18,West,273,1.0,3.0,64,0.00,,,0.00,Wunderground v.1.15,2013-07-17 15:35:00,
2013-07-17 11:38:00,92.4,78.0,30.18,WSW,248,1.0,3.0,63,0.00,,,0.00,Wunderground v.1.15,2013-07-17 15:38:00,
2013-07-17 11:39:00,92.2,77.3,30.18,WSW,254,1.0,4.0,62,0.00,,,0.00,Wunderground v.1.15,2013-07-17 15:39:00,
2013-07-17 11:43:00,92.0,78.5,30.18,SW,221,1.0,1.0,65,0.00,,,0.00,Wunderground v.1.15,2013-07-17 15:43:00,
2013-07-17 11:44:00,92.1,77.7,30.18,SW,234,1.0,4.0,63,0.00,,,0.00,Wunderground v.1.15,2013-07-17 15:44:00,
2013-07-17 11:46:00,92.3,79.3,30.18,WSW,245,1.0,4.0,66,0.00,,,0.00,Wunderground v.1.15,2013-07-17 15:46:00,
2013-07-17 11:50:00,92.5,77.6,30.18,West,280,1.0,4.0,62,0.00,,,0.00,Wunderground v.1.15,2013-07-17 15:50:00,
2013-07-17 11:51:00,92.3,77.9,30.18,West,263,1.0,4.0,63,0.00,,,0.00,Wunderground v.1.15,2013-07-17 15:51:00,
2013-07-17 11:53:00,92.1,78.2,30.18,WSW,245,1.0,4.0,64,0.00,,,0.00,Wunderground v.1.15,2013-07-17 15:53:00,
2013-07-17 11:54:00,92.2,78.3,30.18,WSW,238,1.0,4.0,64,0.00,,,0.00,Wunderground v.1.15,2013-07-17 15:54:00,
2013-07-17 11:58:00,92.3,77.9,30.18,SW,235,2.0,4.0,63,0.00,,,0.00,Wunderground v.1.15,2013-07-17 15:58:00,
2013-07-17 11:59:00,92.2,77.8,30.18,SW,218,2.0,4.0,63,0.00,,,0.00,Wunderground v.1.15,2013-07-17 15:59:00,
2013-07-17 12:00:00,92.1,77.7,30.18,WNW,285,2.0,2.0,63,0.00,,,0.00,Wunderground v.1.15,2013-07-17 16:00:00,
2013-07-17 12:02:00,92.0,77.1,30.17,West,278,2.0,4.0,62,0.00,,,0.00,Wunderground v.1.15,2013-07-17 16:02:00,
2013-07-17 12:03:00,92.0,78.1,30.17,West,277,2.0,4.0,64,0.00,,,0.00,Wunderground v.1.15,2013-07-17 16:03:00,
2013-07-17 12:05:00,92.2,78.3,30.18,WNW,296,2.0,4.0,64,0.00,,,0.00,Wunderground v.1.15,2013-07-17 16:05:00,
2013-07-17 12:06:00,92.4,78.4,30.17,WSW,258,2.0,4.0,64,0.00,,,0.00,Wunderground v.1.15,2013-07-17 16:06:00,
2013-07-17 12:08:00,92.5,78.1,30.17,WSW,242,1.0,4.0,63,0.00,,,0.00,Wunderground v.1.15,2013-07-17 16:08:00,
2013-07-17 12:10:00,92.4,78.0,30.17,NW,304,1.0,4.0,63,0.00,,,0.00,Wunderground v.1.15,2013-07-17 16:10:00,
2013-07-17 12:11:00,92.2,77.3,30.17,WNW,301,1.0,4.0,62,0.00,,,0.00,Wunderground v.1.15,2013-07-17 16:11:00,
2013-07-17 12:13:00,92.2,78.7,30.17,WNW,289,1.0,4.0,65,0.00,,,0.00,Wunderground v.1.15,2013-07-17 16:13:00,
2013-07-17 12:15:00,92.4,78.4,30.17,West,264,1.0,4.0,64,0.00,,,0.00,Wunderground v.1.15,2013-07-17 16:15:00,
2013-07-17 12:16:00,92.5,78.1,30.17,WSW,243,1.0,4.0,63,0.00,,,0.00,Wunderground v.1.15,2013-07-17 16:16:00,
2013-07-17 12:17:00,92.4,77.5,30.17,SW,222,1.0,4.0,62,0.00,,,0.00,Wunderground v.1.15,2013-07-17 16:17:00,
2013-07-17 12:20:00,92.2,77.3,30.17,WSW,246,1.0,1.0,62,0.00,,,0.00,Wunderground v.1.15,2013-07-17 16:20:00,
2013-07-17 12:21:00,92.0,77.6,30.17,WSW,246,1.0,1.0,63,0.00,,,0.00,Wunderground v.1.15,2013-07-17 16:21:00,
2013-07-17 12:23:00,92.0,78.1,30.17,WSW,245,1.0,1.0,64,0.00,,,0.00,Wunderground v.1.15,2013-07-17 16:23:00,
2013-07-17 12:24:00,92.0,77.6,30.17,West,271,1.0,1.0,63,0.00,,,0.00,Wunderground v.1.15,2013-07-17 16:24:00,
2013-07-17 12:27:00,92.1,77.7,30.17,SW,224,1.0,1.0,63,0.00,,,0.00,Wunderground v.1.15,2013-07-17 16:27:00,
2013-07-17 12:30:00,91.8,77.4,30.17,WSW,255,1.0,2.0,63,0.00,,,0.00,Wunderground v.1.15,2013-07-17 16:30:00,
2013-07-17 12:32:00,91.8,77.4,30.17,West,274,1.0,3.0,63,0.00,,,0.00,Wunderground v.1.15,2013-07-17 16:32:00,
2013-07-17 12:33:00,91.8,77.4,30.17,SW,218,1.0,3.0,63,0.00,,,0.00,Wunderground v.1.15,2013-07-17 16:33:00,
2013-07-17 12:35:00,91.9,78.0,30.17,WNW,297,1.0,3.0,64,0.00,,,0.00,Wunderground v.1.15,2013-07-17 16:35:00,
2013-07-17 12:36:00,92.0,77.1,30.17,WSW,239,1.0,4.0,62,0.00,,,0.00,Wunderground v.1.15,2013-07-17 16:36:00,
2013-07-17 12:38:00,91.9,77.5,30.17,West,262,1.0,4.0,63,0.00,,,0.00,Wunderground v.1.15,2013-07-17 16:38:00,
2013-07-17 12:41:00,92.1,77.2,30.16,WSW,242,1.0,3.0,62,0.00,,,0.00,Wunderground v.1.15,2013-07-17 16:41:00,
2013-07-17 12:43:00,92.2,77.8,30.16,SW,233,2.0,5.0,63,0.00,,,0.00,Wunderground v.1.15,2013-07-17 16:43:00,
2013-07-17 12:44:00,92.2,78.7,30.16,WSW,243,2.0,5.0,65,0.00,,,0.00,Wunderground v.1.15,2013-07-17 16:44:00,
2013-07-17 12:46:00,92.4,78.9,30.17,SW,229,2.0,5.0,65,0.00,,,0.00,Wunderground v.1.15,2013-07-17 16:46:00,
2013-07-17 12:49:00,92.5,78.5,30.16,WNW,283,1.0,5.0,64,0.00,,,0.00,Wunderground v.1.15,2013-07-17 16:49:00,
2013-07-17 12:50:00,92.6,79.1,30.16,West,262,1.0,3.0,65,0.00,,,0.00,Wunderground v.1.15,2013-07-17 16:50:00,
2013-07-17 12:52:00,92.5,77.6,30.16,WSW,242,1.0,3.0,62,0.00,,,0.00,Wunderground v.1.15,2013-07-17 16:52:00,
2013-07-17 12:56:00,92.4,78.0,30.16,West,281,2.0,5.0,63,0.00,,,0.00,Wunderground v.1.15,2013-07-17 16:56:00,
2013-07-17 12:57:00,92.4,78.4,30.16,WSW,238,2.0,5.0,64,0.00,,,0.00,Wunderground v.1.15,2013-07-17 16:57:00,
2013-07-17 13:01:00,92.1,78.2,30.16,NW,304,2.0,2.0,64,0.00,,,0.00,Wunderground v.1.15,2013-07-17 17:01:00,
2013-07-17 13:03:00,91.9,78.0,30.16,West,262,2.0,2.0,64,0.00,,,0.00,Wunderground v.1.15,2013-07-17 17:03:00,
2013-07-17 13:04:00,91.8,77.9,30.16,West,260,2.0,2.0,64,0.00,,,0.00,Wunderground v.1.15,2013-07-17 17:04:00,
2013-07-17 13:07:00,91.9,78.4,30.16,West,266,2.0,4.0,65,0.00,,,0.00,Wunderground v.1.15,2013-07-17 17:07:00,
2013-07-17 13:09:00,92.2,79.2,30.16,NW,309,1.0,4.0,66,0.00,,,0.00,Wunderground v.1.15,2013-07-17 17:09:00,
2013-07-17 13:10:00,92.4,79.8,30.16,WSW,248,1.0,1.0,67,0.00,,,0.00,Wunderground v.1.15,2013-07-17 17:10:00,
2013-07-17 13:13:00,92.7,79.2,30.15,West,264,1.0,3.0,65,0.00,,,0.00,Wunderground v.1.15,2013-07-17 17:13:00,
2013-07-17 13:14:00,92.8,79.3,30.15,West,266,1.0,3.0,65,0.00,,,0.00,Wunderground v.1.15,2013-07-17 17:14:00,
2013-07-17 13:15:00,92.7,78.3,30.15,West,259,1.0,3.0,63,0.00,,,0.00,Wunderground v.1.15,2013-07-17 17:15:00,
2013-07-17 13:19:00,92.2,77.3,30.16,WSW,248,1.0,3.0,62,0.00,,,0.00,Wunderground v.1.15,2013-07-17 17:19:00,
2013-07-17 13:20:00,91.9,78.0,30.16,West,278,2.0,5.0,64,0.00,,,0.00,Wunderground v.1.15,2013-07-17 17:20:00,
2013-07-17 13:23:00,90.9,77.5,30.16,West,262,2.0,5.0,65,0.00,,,0.00,Wunderground v.1.15,2013-07-17 17:23:00,
2013-07-17 13:25:00,90.4,77.5,30.15,WSW,240,2.0,5.0,66,0.00,,,0.00,Wunderground v.1.15,2013-07-17 17:25:00,
2013-07-17 13:26:00,90.2,77.3,30.15,WSW,245,2.0,5.0,66,0.00,,,0.00,Wunderground v.1.15,2013-07-17 17:26:00,
2013-07-17 13:28:00,89.9,77.0,30.15,WSW,256,2.0,5.0,66,0.00,,,0.00,Wunderground v.1.15,2013-07-17 17:28:00,
2013-07-17 13:29:00,89.7,77.3,30.15,WSW,243,2.0,5.0,67,0.00,,,0.00,Wunderground v.1.15,2013-07-17 17:29:00,
2013-07-17 13:32:00,89.1,75.8,30.15,SW,222,1.0,2.0,65,0.00,,,0.00,Wunderground v.1.15,2013-07-17 17:32:00,
2013-07-17 13:35:00,88.8,75.5,30.15,WSW,252,1.0,2.0,65,0.00,,,0.00,Wunderground v.1.15,2013-07-17 17:35:00,
2013-07-17 13:38:00,88.7,75.9,30.15,WSW,256,1.0,2.0,66,0.00,,,0.00,Wunderground v.1.15,2013-07-17 17:38:00,
2013-07-17 13:41:00,88.7,76.3,30.15,SW,235,0.0,1.0,67,0.00,,,0.00,Wunderground v.1.15,2013-07-17 17:41:00,
2013-07-17 13:42:00,88.8,76.0,30.15,SW,235,0.0,1.0,66,0.00,,,0.00,Wunderground v.1.15,2013-07-17 17:42:00,
2013-07-17 13:43:00,88.8,75.5,30.15,SW,235,0.0,1.0,65,0.00,,,0.00,Wunderground v.1.15,2013-07-17 17:43:00,
2013-07-17 13:44:00,89.0,75.7,30.15,SW,235,0.0,1.0,65,0.00,,,0.00,Wunderground v.1.15,2013-07-17 17:44:00,
2013-07-17 13:45:00,89.1,75.8,30.15,SW,224,0.0,1.0,65,0.00,,,0.00,Wunderground v.1.15,2013-07-17 17:45:00,
2013-07-17 13:50:00,90.2,75.9,30.14,West,269,0.0,1.0,63,0.00,,,0.00,Wunderground v.1.15,2013-07-17 17:50:00,
2013-07-17 13:52:00,90.7,77.3,30.14,West,281,0.0,1.0,65,0.00,,,0.00,Wunderground v.1.15,2013-07-17 17:52:00,
2013-07-17 13:54:00,90.9,77.0,30.14,WSW,245,1.0,1.0,64,0.00,,,0.00,Wunderground v.1.15,2013-07-17 17:54:00,
2013-07-17 13:55:00,91.0,77.1,30.14,NW,309,1.0,3.0,64,0.00,,,0.00,Wunderground v.1.15,2013-07-17 17:55:00,
2013-07-17 14:00:00,90.9,78.0,30.14,WNW,289,1.0,1.0,66,0.00,,,0.00,Wunderground v.1.15,2013-07-17 18:00:00,
2013-07-17 14:01:00,91.0,77.6,30.13,WNW,285,1.0,1.0,65,0.00,,,0.00,Wunderground v.1.15,2013-07-17 18:01:00,
2013-07-17 14:03:00,91.2,78.2,30.13,WSW,242,1.0,1.0,66,0.00,,,0.00,Wunderground v.1.15,2013-07-17 18:03:00,
2013-07-17 14:07:00,91.0,78.1,30.13,SSW,208,1.0,1.0,66,0.00,,,0.00,Wunderground v.1.15,2013-07-17 18:07:00,
2013-07-17 14:08:00,90.9,78.4,30.13,SW,216,1.0,1.0,67,0.00,,,0.00,Wunderground v.1.15,2013-07-17 18:08:00,
2013-07-17 14:11:00,90.7,78.7,30.13,SW,225,1.0,1.0,68,0.00,,,0.00,Wunderground v.1.15,2013-07-17 18:11:00,
2013-07-17 14:12:00,90.7,78.7,30.12,SW,231,1.0,1.0,68,0.00,,,0.00,Wunderground v.1.15,2013-07-17 18:12:00,
2013-07-17 14:14:00,90.9,79.3,30.12,WSW,240,1.0,1.0,69,0.00,,,0.00,Wunderground v.1.15,2013-07-17 18:14:00,
2013-07-17 14:16:00,91.3,79.3,30.12,West,276,1.0,5.0,68,0.00,,,0.00,Wunderground v.1.15,2013-07-17 18:16:00,
2013-07-17 14:19:00,91.5,79.0,30.12,WNW,287,2.0,5.0,67,0.00,,,0.00,Wunderground v.1.15,2013-07-17 18:19:00,
2013-07-17 14:21:00,91.6,79.1,30.12,West,270,2.0,2.0,67,0.00,,,0.00,Wunderground v.1.15,2013-07-17 18:21:00,
2013-07-17 14:22:00,91.8,78.8,30.12,WNW,293,2.0,3.0,66,0.00,,,0.00,Wunderground v.1.15,2013-07-17 18:22:00,
2013-07-17 14:23:00,91.9,79.4,30.12,WSW,254,2.0,3.0,67,0.00,,,0.00,Wunderground v.1.15,2013-07-17 18:23:00,
2013-07-17 14:24:00,92.0,79.5,30.12,WSW,242,2.0,3.0,67,0.00,,,0.00,Wunderground v.1.15,2013-07-17 18:24:00,
2013-07-17 14:25:00,92.2,80.1,30.12,SW,231,2.0,3.0,68,0.00,,,0.00,Wunderground v.1.15,2013-07-17 18:25:00,
2013-07-17 14:29:00,92.6,79.1,30.12,West,263,2.0,3.0,65,0.00,,,0.00,Wunderground v.1.15,2013-07-17 18:29:00,
2013-07-17 14:30:00,92.7,79.2,30.12,SW,218,2.0,2.0,65,0.00,,,0.00,Wunderground v.1.15,2013-07-17 18:30:00,
2013-07-17 14:31:00,92.8,80.2,30.11,WNW,283,2.0,2.0,67,0.00,,,0.00,Wunderground v.1.15,2013-07-17 18:31:00,
2013-07-17 14:32:00,93.0,80.0,30.11,WSW,242,1.0,2.0,66,0.00,,,0.00,Wunderground v.1.15,2013-07-17 18:32:00,
2013-07-17 14:36:00,93.4,79.4,30.11,West,277,2.0,3.0,64,0.00,,,0.00,Wunderground v.1.15,2013-07-17 18:36:00,
2013-07-17 14:37:00,93.4,78.9,30.11,SSW,201,2.0,3.0,63,0.00,,,0.00,Wunderground v.1.15,2013-07-17 18:37:00,
2013-07-17 14:39:00,93.3,77.8,30.11,NNW,335,2.0,4.0,61,0.00,,,0.00,Wunderground v.1.15,2013-07-17 18:39:00,
2013-07-17 14:41:00,93.1,78.1,30.11,West,263,3.0,6.0,62,0.00,,,0.00,Wunderground v.1.15,2013-07-17 18:41:00,
2013-07-17 14:46:00,92.9,78.9,30.11,SW,235,3.0,6.0,64,0.00,,,0.00,Wunderground v.1.15,2013-07-17 18:46:00,
2013-07-17 14:48:00,92.9,79.4,30.11,WSW,240,3.0,6.0,65,0.00,,,0.00,Wunderground v.1.15,2013-07-17 18:48:00,
2013-07-17 14:49:00,92.9,78.9,30.11,SW,225,3.0,6.0,64,0.00,,,0.00,Wunderground v.1.15,2013-07-17 18:49:00,
2013-07-17 14:50:00,92.9,79.4,30.12,WSW,249,3.0,3.0,65,0.00,,,0.00,Wunderground v.1.15,2013-07-17 18:50:00,
2013-07-17 14:54:00,92.2,77.8,30.11,WSW,240,2.0,3.0,63,0.00,,,0.00,Wunderground v.1.15,2013-07-17 18:54:00,
2013-07-17 14:57:00,91.7,77.8,30.11,West,266,2.0,3.0,64,0.00,,,0.00,Wunderground v.1.15,2013-07-17 18:57:00,
2013-07-17 14:58:00,91.6,77.7,30.11,West,277,2.0,3.0,64,0.00,,,0.00,Wunderground v.1.15,2013-07-17 18:58:00,
2013-07-17 15:03:00,91.0,77.6,30.11,West,273,2.0,4.0,65,0.00,,,0.00,Wunderground v.1.15,2013-07-17 19:03:00,
2013-07-17 15:04:00,90.8,78.3,30.11,SW,218,2.0,4.0,67,0.00,,,0.00,Wunderground v.1.15,2013-07-17 19:04:00,
2013-07-17 15:07:00,89.7,79.0,30.12,West,259,2.0,4.0,71,0.00,,,0.01,Wunderground v.1.15,2013-07-17 19:07:00,
2013-07-17 15:08:00,89.3,78.7,30.12,WNW,283,2.0,4.0,71,0.00,,,0.01,Wunderground v.1.15,2013-07-17 19:08:00,
2013-07-17 15:09:00,88.8,79.4,30.12,West,276,2.0,4.0,74,0.28,,,0.01,Wunderground v.1.15,2013-07-17 19:09:00,
2013-07-17 15:13:00,87.2,79.1,30.11,WSW,252,2.0,2.0,77,0.14,,,0.02,Wunderground v.1.15,2013-07-17 19:13:00,
2013-07-17 15:14:00,86.9,78.8,30.11,West,260,2.0,2.0,77,0.11,,,0.02,Wunderground v.1.15,2013-07-17 19:14:00,
2013-07-17 15:15:00,86.7,78.6,30.11,West,281,2.0,3.0,77,0.10,,,0.02,Wunderground v.1.15,2013-07-17 19:15:00,
2013-07-17 15:20:00,85.7,78.8,30.11,WSW,257,1.0,1.0,80,0.05,,,0.02,Wunderground v.1.15,2013-07-17 19:20:00,
2013-07-17 15:21:00,85.6,77.9,30.11,WSW,257,1.0,1.0,78,0.05,,,0.02,Wunderground v.1.15,2013-07-17 19:21:00,
2013-07-17 15:24:00,85.3,78.4,30.11,WSW,250,0.0,1.0,80,0.04,,,0.02,Wunderground v.1.15,2013-07-17 19:24:00,
2013-07-17 15:27:00,85.5,79.4,30.11,WSW,250,0.0,1.0,82,0.00,,,0.02,Wunderground v.1.15,2013-07-17 19:27:00,
2013-07-17 15:28:00,85.6,79.1,30.11,WSW,250,0.0,1.0,81,0.00,,,0.02,Wunderground v.1.15,2013-07-17 19:28:00,
2013-07-17 15:30:00,85.9,78.6,30.11,WNW,287,0.0,1.0,79,0.00,,,0.02,Wunderground v.1.15,2013-07-17 19:30:00,
2013-07-17 15:32:00,86.3,78.2,30.11,SW,231,0.0,1.0,77,0.00,,,0.02,Wunderground v.1.15,2013-07-17 19:32:00,
2013-07-17 15:34:00,86.9,78.0,30.10,WSW,248,0.0,1.0,75,0.00,,,0.02,Wunderground v.1.15,2013-07-17 19:34:00,
2013-07-17 15:37:00,87.7,76.7,30.10,West,263,0.0,1.0,70,0.00,,,0.02,Wunderground v.1.15,2013-07-17 19:37:00,
2013-07-17 15:38:00,88.0,77.4,30.10,SSW,208,0.0,1.0,71,0.00,,,0.02,Wunderground v.1.15,2013-07-17 19:38:00,
2013-07-17 15:40:00,88.4,77.4,30.10,West,281,1.0,1.0,70,0.00,,,0.02,Wunderground v.1.15,2013-07-17 19:40:00,
2013-07-17 15:42:00,88.8,76.9,30.11,SW,224,1.0,1.0,68,0.00,,,0.02,Wunderground v.1.15,2013-07-17 19:42:00,
2013-07-17 15:43:00,89.1,78.0,30.10,SW,224,1.0,1.0,70,0.00,,,0.02,Wunderground v.1.15,2013-07-17 19:43:00,
2013-07-17 15:46:00,89.7,78.6,30.10,SW,236,1.0,1.0,70,0.00,,,0.02,Wunderground v.1.15,2013-07-17 19:46:00,
2013-07-17 15:47:00,89.9,77.9,30.10,West,271,1.0,2.0,68,0.00,,,0.02,Wunderground v.1.15,2013-07-17 19:47:00,
2013-07-17 15:49:00,90.4,79.3,30.10,WSW,251,1.0,2.0,70,0.00,,,0.02,Wunderground v.1.15,2013-07-17 19:49:00,
2013-07-17 15:51:00,90.7,78.7,30.10,WSW,249,1.0,2.0,68,0.00,,,0.02,Wunderground v.1.15,2013-07-17 19:51:00,
2013-07-17 15:52:00,90.8,79.2,30.10,WSW,250,1.0,2.0,69,0.00,,,0.02,Wunderground v.1.15,2013-07-17 19:52:00,
2013-07-17 15:53:00,90.9,79.3,30.10,WSW,249,1.0,3.0,69,0.00,,,0.02,Wunderground v.1.15,2013-07-17 19:53:00,
2013-07-17 15:55:00,91.2,78.7,30.10,WSW,256,2.0,3.0,67,0.00,,,0.02,Wunderground v.1.15,2013-07-17 19:55:00,
2013-07-17 15:58:00,91.4,79.3,30.10,SW,225,2.0,3.0,68,0.00,,,0.02,Wunderground v.1.15,2013-07-17 19:58:00,
2013-07-17 16:00:00,91.6,79.5,30.10,WSW,249,2.0,2.0,68,0.00,,,0.02,Wunderground v.1.15,2013-07-17 20:00:00,
2013-07-17 16:02:00,91.7,79.6,30.10,WNW,292,2.0,4.0,68,0.00,,,0.02,Wunderground v.1.15,2013-07-17 20:02:00,
2013-07-17 16:03:00,91.8,79.3,30.10,WNW,290,2.0,4.0,67,0.00,,,0.02,Wunderground v.1.15,2013-07-17 20:03:00,
2013-07-17 16:06:00,92.0,79.9,30.10,WSW,240,2.0,4.0,68,0.00,,,0.02,Wunderground v.1.15,2013-07-17 20:06:00,
2013-07-17 16:08:00,91.9,78.9,30.09,WSW,253,2.0,4.0,66,0.00,,,0.02,Wunderground v.1.15,2013-07-17 20:08:00,
2013-07-17 16:10:00,91.8,78.8,30.09,WSW,250,3.0,3.0,66,0.00,,,0.02,Wunderground v.1.15,2013-07-17 20:10:00,
2013-07-17 16:11:00,91.8,78.8,30.09,WSW,239,3.0,3.0,66,0.00,,,0.02,Wunderground v.1.15,2013-07-17 20:11:00,
2013-07-17 16:15:00,91.9,78.4,30.09,West,262,3.0,3.0,65,0.00,,,0.02,Wunderground v.1.15,2013-07-17 20:15:00,
2013-07-17 16:16:00,92.0,78.5,30.09,West,266,3.0,3.0,65,0.00,,,0.02,Wunderground v.1.15,2013-07-17 20:16:00,
2013-07-17 16:19:00,92.2,78.3,30.09,West,270,3.0,6.0,64,0.00,,,0.02,Wunderground v.1.15,2013-07-17 20:19:00,
2013-07-17 16:20:00,92.2,78.3,30.09,SW,232,3.0,3.0,64,0.00,,,0.02,Wunderground v.1.15,2013-07-17 20:20:00,
2013-07-17 16:23:00,92.3,78.4,30.09,WSW,238,3.0,3.0,64,0.00,,,0.02,Wunderground v.1.15,2013-07-17 20:23:00,
2013-07-17 16:25:00,92.4,78.4,30.09,WSW,248,3.0,3.0,64,0.00,,,0.02,Wunderground v.1.15,2013-07-17 20:25:00,
2013-07-17 16:29:00,92.5,78.5,30.09,West,266,2.0,3.0,64,0.00,,,0.02,Wunderground v.1.15,2013-07-17 20:29:00,
2013-07-17 16:31:00,92.7,77.8,30.09,WSW,248,2.0,2.0,62,0.00,,,0.02,Wunderground v.1.15,2013-07-17 20:31:00,
2013-07-17 16:32:00,92.7,77.8,30.09,WSW,252,2.0,2.0,62,0.00,,,0.02,Wunderground v.1.15,2013-07-17 20:32:00,
2013-07-17 16:33:00,92.7,77.8,30.08,SW,226,2.0,2.0,62,0.00,,,0.02,Wunderground v.1.15,2013-07-17 20:33:00,
2013-07-17 16:34:00,92.9,78.9,30.08,West,263,2.0,2.0,64,0.00,,,0.02,Wunderground v.1.15,2013-07-17 20:34:00,
2013-07-17 16:37:00,93.0,77.6,30.08,SW,216,1.0,4.0,61,0.00,,,0.02,Wunderground v.1.15,2013-07-17 20:37:00,
2013-07-17 16:40:00,92.8,77.9,30.08,SSW,208,2.0,2.0,62,0.00,,,0.02,Wunderground v.1.15,2013-07-17 20:40:00,
2013-07-17 16:41:00,92.8,77.9,30.08,WSW,247,1.0,2.0,62,0.00,,,0.02,Wunderground v.1.15,2013-07-17 20:41:00,
2013-07-17 16:43:00,92.6,77.7,30.08,SW,225,1.0,2.0,62,0.00,,,0.02,Wunderground v.1.15,2013-07-17 20:43:00,
2013-07-17 16:44:00,92.6,77.7,30.08,West,264,2.0,6.0,62,0.00,,,0.02,Wunderground v.1.15,2013-07-17 20:44:00,
2013-07-17 16:46:00,92.5,77.6,30.08,SW,236,2.0,6.0,62,0.00,,,0.02,Wunderground v.1.15,2013-07-17 20:46:00,
2013-07-17 16:50:00,92.4,77.5,30.08,West,278,2.0,3.0,62,0.00,,,0.02,Wunderground v.1.15,2013-07-17 20:50:00,
2013-07-17 16:51:00,92.3,76.9,30.08,SW,229,2.0,3.0,61,0.00,,,0.02,Wunderground v.1.15,2013-07-17 20:51:00,
2013-07-17 16:52:00,92.3,77.4,30.08,SSW,208,2.0,3.0,62,0.00,,,0.02,Wunderground v.1.15,2013-07-17 20:52:00,
2013-07-17 16:53:00,92.2,77.3,30.08,SW,215,2.0,3.0,62,0.00,,,0.02,Wunderground v.1.15,2013-07-17 20:53:00,
2013-07-17 16:56:00,92.1,76.7,30.08,West,275,2.0,4.0,61,0.00,,,0.02,Wunderground v.1.15,2013-07-17 20:56:00,
2013-07-17 16:59:00,92.2,76.8,30.08,West,264,2.0,5.0,61,0.00,,,0.02,Wunderground v.1.15,2013-07-17 20:59:00,
2013-07-17 17:00:00,92.2,76.8,30.08,WSW,242,2.0,2.0,61,0.00,,,0.02,Wunderground v.1.15,2013-07-17 21:00:00,
2013-07-17 17:01:00,92.3,76.9,30.08,SSW,205,2.0,2.0,61,0.00,,,0.02,Wunderground v.1.15,2013-07-17 21:01:00,
2013-07-17 17:04:00,92.4,76.5,30.08,WSW,249,2.0,5.0,60,0.00,,,0.02,Wunderground v.1.15,2013-07-17 21:04:00,
2013-07-17 17:06:00,92.4,76.0,30.08,SW,226,2.0,6.0,59,0.00,,,0.02,Wunderground v.1.15,2013-07-17 21:06:00,
2013-07-17 17:07:00,92.5,76.6,30.08,WSW,257,2.0,6.0,60,0.00,,,0.02,Wunderground v.1.15,2013-07-17 21:07:00,
2013-07-17 17:08:00,92.6,76.7,30.08,West,263,2.0,6.0,60,0.00,,,0.02,Wunderground v.1.15,2013-07-17 21:08:00,
2013-07-17 17:11:00,92.6,75.7,30.08,WNW,302,2.0,3.0,58,0.00,,,0.02,Wunderground v.1.15,2013-07-17 21:11:00,
2013-07-17 17:12:00,92.6,75.1,30.08,WSW,252,2.0,3.0,57,0.00,,,0.02,Wunderground v.1.15,2013-07-17 21:12:00,
2013-07-17 17:14:00,92.5,74.5,30.08,West,274,3.0,3.0,56,0.00,,,0.02,Wunderground v.1.15,2013-07-17 21:14:00,
2013-07-17 17:17:00,92.5,74.5,30.08,SW,214,2.0,3.0,56,0.00,,,0.02,Wunderground v.1.15,2013-07-17 21:17:00,
2013-07-17 17:18:00,92.5,74.0,30.08,SW,226,2.0,3.0,55,0.00,,,0.02,Wunderground v.1.15,2013-07-17 21:18:00,
2013-07-17 17:19:00,92.5,72.9,30.08,WSW,239,2.0,3.0,53,0.00,,,0.02,Wunderground v.1.15,2013-07-17 21:19:00,
2013-07-17 17:22:00,92.6,74.1,30.08,WSW,250,2.0,3.0,55,0.00,,,0.02,Wunderground v.1.15,2013-07-17 21:22:00,
2013-07-17 17:26:00,92.7,73.6,30.08,NW,304,3.0,9.0,54,0.00,,,0.02,Wunderground v.1.15,2013-07-17 21:26:00,
2013-07-17 17:28:00,92.6,73.0,30.08,WNW,297,3.0,9.0,53,0.00,,,0.02,Wunderground v.1.15,2013-07-17 21:28:00,
2013-07-17 17:32:00,92.6,71.8,30.07,West,275,3.0,5.0,51,0.00,,,0.02,Wunderground v.1.15,2013-07-17 21:32:00,
2013-07-17 17:33:00,92.5,72.9,30.07,South,188,3.0,5.0,53,0.00,,,0.02,Wunderground v.1.15,2013-07-17 21:33:00,
2013-07-17 17:34:00,92.5,72.3,30.07,SW,214,3.0,5.0,52,0.00,,,0.02,Wunderground v.1.15,2013-07-17 21:34:00,
2013-07-17 17:35:00,92.5,72.9,30.07,West,262,3.0,5.0,53,0.00,,,0.02,Wunderground v.1.15,2013-07-17 21:35:00,
2013-07-17 17:38:00,92.4,72.8,30.07,SW,214,3.0,9.0,53,0.00,,,0.02,Wunderground v.1.15,2013-07-17 21:38:00,
2013-07-17 17:39:00,92.5,74.0,30.07,SW,221,3.0,9.0,55,0.00,,,0.02,Wunderground v.1.15,2013-07-17 21:39:00,
2013-07-17 17:41:00,92.6,73.0,30.07,WSW,258,2.0,3.0,53,0.00,,,0.02,Wunderground v.1.15,2013-07-17 21:41:00,
2013-07-17 17:44:00,92.7,73.6,30.07,WSW,252,2.0,5.0,54,0.00,,,0.02,Wunderground v.1.15,2013-07-17 21:44:00,
2013-07-17 17:45:00,92.7,73.6,30.07,SW,218,2.0,5.0,54,0.00,,,0.02,Wunderground v.1.15,2013-07-17 21:45:00,
2013-07-17 17:47:00,92.7,73.6,30.07,WSW,239,2.0,5.0,54,0.00,,,0.02,Wunderground v.1.15,2013-07-17 21:47:00,
2013-07-17 17:50:00,92.6,73.0,30.07,SW,217,2.0,2.0,53,0.00,,,0.02,Wunderground v.1.15,2013-07-17 21:50:00,
2013-07-17 17:51:00,92.5,73.4,30.07,WNW,283,2.0,2.0,54,0.00,,,0.02,Wunderground v.1.15,2013-07-17 21:51:00,
2013-07-17 17:53:00,92.5,74.0,30.08,NW,307,3.0,3.0,55,0.00,,,0.02,Wunderground v.1.15,2013-07-17 21:53:00,
2013-07-17 17:55:00,92.5,74.0,30.07,SSW,213,2.0,3.0,55,0.00,,,0.02,Wunderground v.1.15,2013-07-17 21:55:00,
2013-07-17 17:57:00,92.5,74.0,30.07,SW,226,2.0,3.0,55,0.00,,,0.02,Wunderground v.1.15,2013-07-17 21:57:00,
2013-07-17 17:58:00,92.5,74.5,30.07,West,280,2.0,4.0,56,0.00,,,0.02,Wunderground v.1.15,2013-07-17 21:58:00,
2013-07-17 18:01:00,92.3,74.3,30.07,WNW,295,3.0,6.0,56,0.00,,,0.02,Wunderground v.1.15,2013-07-17 22:01:00,
2013-07-17 18:02:00,92.1,74.1,30.07,WNW,287,3.0,6.0,56,0.00,,,0.02,Wunderground v.1.15,2013-07-17 22:02:00,
2013-07-17 18:04:00,92.1,74.7,30.07,SW,222,3.0,6.0,57,0.00,,,0.02,Wunderground v.1.15,2013-07-17 22:04:00,
2013-07-17 18:09:00,92.2,74.2,30.07,West,265,3.0,6.0,56,0.00,,,0.02,Wunderground v.1.15,2013-07-17 22:09:00,
2013-07-17 18:10:00,92.2,74.8,30.07,WNW,285,3.0,3.0,57,0.00,,,0.02,Wunderground v.1.15,2013-07-17 22:10:00,
2013-07-17 18:12:00,92.1,74.7,30.07,West,262,2.0,3.0,57,0.00,,,0.02,Wunderground v.1.15,2013-07-17 22:12:00,
2013-07-17 18:15:00,92.3,74.9,30.07,SW,228,1.0,3.0,57,0.00,,,0.02,Wunderground v.1.15,2013-07-17 22:15:00,
2013-07-17 18:16:00,92.3,75.4,30.07,WSW,240,1.0,3.0,58,0.00,,,0.02,Wunderground v.1.15,2013-07-17 22:16:00,
2013-07-17 18:18:00,92.3,74.9,30.07,WSW,249,1.0,3.0,57,0.00,,,0.02,Wunderground v.1.15,2013-07-17 22:18:00,
2013-07-17 18:19:00,92.4,75.0,30.07,West,259,1.0,3.0,57,0.00,,,0.02,Wunderground v.1.15,2013-07-17 22:19:00,
2013-07-17 18:23:00,92.5,75.6,30.07,WSW,239,1.0,2.0,58,0.00,,,0.02,Wunderground v.1.15,2013-07-17 22:23:00,
2013-07-17 18:24:00,92.5,75.0,30.07,NW,307,1.0,3.0,57,0.00,,,0.02,Wunderground v.1.15,2013-07-17 22:24:00,
2013-07-17 18:25:00,92.4,75.5,30.07,WSW,242,1.0,3.0,58,0.00,,,0.02,Wunderground v.1.15,2013-07-17 22:25:00,
2013-07-17 18:26:00,92.4,75.0,30.07,SW,217,1.0,3.0,57,0.00,,,0.02,Wunderground v.1.15,2013-07-17 22:26:00,
2013-07-17 18:27:00,92.3,75.4,30.07,WSW,243,2.0,3.0,58,0.00,,,0.02,Wunderground v.1.15,2013-07-17 22:27:00,
2013-07-17 18:31:00,92.3,75.4,30.06,WSW,243,2.0,2.0,58,0.00,,,0.02,Wunderground v.1.15,2013-07-17 22:31:00,
2013-07-17 18:33:00,92.3,75.9,30.07,WSW,253,2.0,2.0,59,0.00,,,0.02,Wunderground v.1.15,2013-07-17 22:33:00,
2013-07-17 18:34:00,92.4,75.5,30.07,WSW,255,1.0,2.0,58,0.00,,,0.02,Wunderground v.1.15,2013-07-17 22:34:00,
2013-07-17 18:35:00,92.4,76.0,30.07,WSW,253,1.0,2.0,59,0.00,,,0.02,Wunderground v.1.15,2013-07-17 22:35:00,
2013-07-17 18:38:00,92.6,76.2,30.07,SSW,212,1.0,2.0,59,0.00,,,0.02,Wunderground v.1.15,2013-07-17 22:38:00,
2013-07-17 18:40:00,92.7,75.8,30.06,SW,225,1.0,1.0,58,0.00,,,0.02,Wunderground v.1.15,2013-07-17 22:40:00,
2013-07-17 18:41:00,92.7,76.3,30.06,West,260,1.0,2.0,59,0.00,,,0.02,Wunderground v.1.15,2013-07-17 22:41:00,
2013-07-17 18:44:00,92.3,75.9,30.06,WSW,254,1.0,2.0,59,0.00,,,0.02,Wunderground v.1.15,2013-07-17 22:44:00,
2013-07-17 18:47:00,92.1,75.2,30.06,West,262,1.0,2.0,58,0.00,,,0.02,Wunderground v.1.15,2013-07-17 22:47:00,
2013-07-17 18:48:00,92.0,75.6,30.06,SW,217,1.0,2.0,59,0.00,,,0.02,Wunderground v.1.15,2013-07-17 22:48:00,
2013-07-17 18:50:00,91.9,75.5,30.06,WSW,256,1.0,1.0,59,0.00,,,0.02,Wunderground v.1.15,2013-07-17 22:50:00,
2013-07-17 18:53:00,91.6,75.7,30.06,West,264,1.0,3.0,60,0.00,,,0.02,Wunderground v.1.15,2013-07-17 22:53:00,
2013-07-17 18:54:00,91.5,75.7,30.06,SW,225,1.0,3.0,60,0.00,,,0.02,Wunderground v.1.15,2013-07-17 22:54:00,
2013-07-17 18:55:00,91.5,75.7,30.06,WSW,245,1.0,3.0,60,0.00,,,0.02,Wunderground v.1.15,2013-07-17 22:55:00,
2013-07-17 18:58:00,91.3,76.0,30.06,WSW,252,1.0,3.0,61,0.00,,,0.02,Wunderground v.1.15,2013-07-17 22:58:00,
2013-07-17 18:59:00,91.2,75.9,30.06,SW,215,1.0,3.0,61,0.00,,,0.02,Wunderground v.1.15,2013-07-17 22:59:00,
2013-07-17 19:02:00,91.1,76.3,30.06,WSW,248,1.0,2.0,62,0.00,,,0.02,Wunderground v.1.15,2013-07-17 23:02:00,
2013-07-17 19:04:00,91.0,75.7,30.06,West,278,1.0,3.0,61,0.00,,,0.02,Wunderground v.1.15,2013-07-17 23:04:00,
2013-07-17 19:05:00,90.9,75.6,30.06,SW,224,1.0,3.0,61,0.00,,,0.02,Wunderground v.1.15,2013-07-17 23:05:00,
2013-07-17 19:08:00,90.7,75.9,30.06,WSW,242,1.0,3.0,62,0.00,,,0.02,Wunderground v.1.15,2013-07-17 23:08:00,
2013-07-17 19:09:00,90.6,75.8,30.06,WSW,246,1.0,3.0,62,0.00,,,0.02,Wunderground v.1.15,2013-07-17 23:09:00,
2013-07-17 19:11:00,90.3,75.5,30.06,SW,222,1.0,2.0,62,0.00,,,0.02,Wunderground v.1.15,2013-07-17 23:11:00,
2013-07-17 19:15:00,89.6,75.3,30.06,SSW,211,1.0,5.0,63,0.00,,,0.02,Wunderground v.1.15,2013-07-17 23:15:00,
2013-07-17 19:16:00,89.5,75.2,30.06,SW,236,1.0,5.0,63,0.00,,,0.02,Wunderground v.1.15,2013-07-17 23:16:00,
2013-07-17 19:17:00,89.3,75.0,30.07,WSW,250,1.0,5.0,63,0.00,,,0.02,Wunderground v.1.15,2013-07-17 23:17:00,
2013-07-17 19:21:00,89.0,75.7,30.07,WSW,255,1.0,1.0,65,0.00,,,0.02,Wunderground v.1.15,2013-07-17 23:21:00,
2013-07-17 19:23:00,88.8,75.5,30.06,SW,221,1.0,1.0,65,0.00,,,0.02,Wunderground v.1.15,2013-07-17 23:23:00,
2013-07-17 19:26:00,88.5,75.2,30.06,WSW,240,1.0,2.0,65,0.00,,,0.02,Wunderground v.1.15,2013-07-17 23:26:00,
2013-07-17 19:28:00,88.4,75.1,30.06,WNW,283,1.0,2.0,65,0.00,,,0.02,Wunderground v.1.15,2013-07-17 23:28:00,
2013-07-17 19:29:00,88.3,75.0,30.06,SW,225,1.0,3.0,65,0.00,,,0.02,Wunderground v.1.15,2013-07-17 23:29:00,
2013-07-17 19:31:00,88.2,74.9,30.07,SW,217,1.0,3.0,65,0.00,,,0.02,Wunderground v.1.15,2013-07-17 23:31:00,
2013-07-17 19:33:00,88.1,75.3,30.07,SSW,200,1.0,3.0,66,0.00,,,0.02,Wunderground v.1.15,2013-07-17 23:33:00,
2013-07-17 19:34:00,88.0,75.2,30.07,SSW,212,1.0,3.0,66,0.00,,,0.02,Wunderground v.1.15,2013-07-17 23:34:00,
2013-07-17 19:35:00,88.0,75.2,30.07,SW,214,1.0,3.0,66,0.00,,,0.02,Wunderground v.1.15,2013-07-17 23:35:00,
2013-07-17 19:36:00,87.9,75.1,30.07,SW,214,1.0,3.0,66,0.00,,,0.02,Wunderground v.1.15,2013-07-17 23:36:00,
2013-07-17 19:40:00,87.7,75.4,30.07,WNW,283,1.0,3.0,67,0.00,,,0.02,Wunderground v.1.15,2013-07-17 23:40:00,
2013-07-17 19:41:00,87.7,75.4,30.08,West,264,1.0,3.0,67,0.00,,,0.02,Wunderground v.1.15,2013-07-17 23:41:00,
2013-07-17 19:42:00,87.7,75.4,30.08,West,262,1.0,3.0,67,0.00,,,0.02,Wunderground v.1.15,2013-07-17 23:42:00,
2013-07-17 19:46:00,87.5,75.2,30.08,WNW,298,0.0,3.0,67,0.00,,,0.02,Wunderground v.1.15,2013-07-17 23:46:00,
2013-07-17 19:48:00,87.4,75.1,30.07,SW,219,1.0,3.0,67,0.00,,,0.02,Wunderground v.1.15,2013-07-17 23:48:00,
2013-07-17 19:49:00,87.4,75.1,30.07,West,269,1.0,3.0,67,0.00,,,0.02,Wunderground v.1.15,2013-07-17 23:49:00,
2013-07-17 19:50:00,87.4,75.1,30.08,West,273,1.0,6.0,67,0.00,,,0.02,Wunderground v.1.15,2013-07-17 23:50:00,
2013-07-17 19:54:00,87.3,75.4,30.08,WSW,256,1.0,6.0,68,0.00,,,0.02,Wunderground v.1.15,2013-07-17 23:54:00,
2013-07-17 19:55:00,87.2,75.3,30.08,West,271,2.0,6.0,68,0.00,,,0.02,Wunderground v.1.15,2013-07-17 23:55:00,
2013-07-17 19:56:00,87.1,75.3,30.08,West,264,2.0,6.0,68,0.00,,,0.02,Wunderground v.1.15,2013-07-17 23:56:00,
2013-07-17 19:57:00,87.0,75.2,30.08,SW,224,2.0,6.0,68,0.00,,,0.02,Wunderground v.1.15,2013-07-17 23:57:00,
2013-07-17 19:58:00,86.9,75.1,30.08,West,260,3.0,6.0,68,0.00,,,0.02,Wunderground v.1.15,2013-07-17 23:58:00,
2013-07-17 20:00:00,86.6,74.8,30.08,West,266,3.0,3.0,68,0.00,,,0.02,Wunderground v.1.15,2013-07-18 00:00:00,
2013-07-17 20:02:00,86.3,74.9,30.08,WNW,302,3.0,3.0,69,0.00,,,0.02,Wunderground v.1.15,2013-07-18 00:02:00,
2013-07-17 20:03:00,86.1,74.3,30.08,WSW,256,3.0,3.0,68,0.00,,,0.02,Wunderground v.1.15,2013-07-18 00:03:00,
2013-07-17 20:04:00,85.9,74.5,30.08,West,273,3.0,4.0,69,0.00,,,0.02,Wunderground v.1.15,2013-07-18 00:04:00,
2013-07-17 20:05:00,85.7,74.4,30.07,WSW,240,3.0,4.0,69,0.00,,,0.02,Wunderground v.1.15,2013-07-18 00:05:00,
2013-07-17 20:06:00,85.6,74.7,30.07,West,281,3.0,4.0,70,0.00,,,0.02,Wunderground v.1.15,2013-07-18 00:06:00,
2013-07-17 20:08:00,85.3,74.8,30.08,West,276,2.0,4.0,71,0.00,,,0.02,Wunderground v.1.15,2013-07-18 00:08:00,
2013-07-17 20:09:00,85.0,74.5,30.08,West,269,2.0,4.0,71,0.00,,,0.02,Wunderground v.1.15,2013-07-18 00:09:00,
2013-07-17 20:11:00,84.6,74.6,30.08,WSW,240,2.0,3.0,72,0.00,,,0.02,Wunderground v.1.15,2013-07-18 00:11:00,
2013-07-17 20:14:00,84.0,74.8,30.08,SW,225,2.0,3.0,74,0.00,,,0.02,Wunderground v.1.15,2013-07-18 00:14:00,
2013-07-17 20:15:00,83.7,74.5,30.08,WSW,246,2.0,3.0,74,0.00,,,0.02,Wunderground v.1.15,2013-07-18 00:15:00,
2013-07-17 20:18:00,83.3,74.9,30.08,WSW,243,1.0,3.0,76,0.00,,,0.02,Wunderground v.1.15,2013-07-18 00:18:00,
2013-07-17 20:19:00,83.1,75.1,30.08,SSW,210,1.0,3.0,77,0.00,,,0.02,Wunderground v.1.15,2013-07-18 00:19:00,
2013-07-17 20:20:00,83.0,75.0,30.07,SW,232,1.0,1.0,77,0.00,,,0.02,Wunderground v.1.15,2013-07-18 00:20:00,
2013-07-17 20:21:00,82.8,74.8,30.08,SW,235,1.0,1.0,77,0.00,,,0.02,Wunderground v.1.15,2013-07-18 00:21:00,
2013-07-17 20:24:00,82.6,75.4,30.08,WNW,293,1.0,2.0,79,0.00,,,0.02,Wunderground v.1.15,2013-07-18 00:24:00,
2013-07-17 20:25:00,82.5,75.3,30.08,WSW,250,1.0,2.0,79,0.00,,,0.02,Wunderground v.1.15,2013-07-18 00:25:00,
2013-07-17 20:26:00,82.4,75.2,30.08,SW,214,1.0,2.0,79,0.00,,,0.02,Wunderground v.1.15,2013-07-18 00:26:00,
2013-07-17 20:30:00,82.0,75.2,30.07,SW,233,1.0,1.0,80,0.00,,,0.02,Wunderground v.1.15,2013-07-18 00:30:00,
2013-07-17 20:32:00,81.8,75.0,30.07,SSW,212,1.0,1.0,80,0.00,,,0.02,Wunderground v.1.15,2013-07-18 00:32:00,
2013-07-17 20:33:00,81.8,75.0,30.07,SSW,213,1.0,1.0,80,0.00,,,0.02,Wunderground v.1.15,2013-07-18 00:33:00,
2013-07-17 20:35:00,81.7,74.9,30.08,WSW,252,1.0,1.0,80,0.00,,,0.02,Wunderground v.1.15,2013-07-18 00:35:00,
2013-07-17 20:36:00,81.6,74.8,30.07,WSW,253,0.0,1.0,80,0.00,,,0.02,Wunderground v.1.15,2013-07-18 00:36:00,
2013-07-17 20:41:00,81.4,75.0,30.08,WSW,253,0.0,1.0,81,0.00,,,0.02,Wunderground v.1.15,2013-07-18 00:41:00,
2013-07-17 20:43:00,81.4,75.0,30.08,SW,231,0.0,1.0,81,0.00,,,0.02,Wunderground v.1.15,2013-07-18 00:43:00,
2013-07-17 20:45:00,81.3,74.9,30.07,SW,231,0.0,1.0,81,0.00,,,0.02,Wunderground v.1.15,2013-07-18 00:45:00,
2013-07-17 20:47:00,81.2,74.8,30.07,SW,230,0.0,1.0,81,0.00,,,0.02,Wunderground v.1.15,2013-07-18 00:47:00,
2013-07-17 20:49:00,81.2,74.8,30.07,SW,231,0.0,1.0,81,0.00,,,0.02,Wunderground v.1.15,2013-07-18 00:49:00,
2013-07-17 20:50:00,81.2,75.2,30.07,SW,231,0.0,1.0,82,0.00,,,0.02,Wunderground v.1.15,2013-07-18 00:50:00,
2013-07-17 20:51:00,81.2,75.2,30.07,SW,230,0.0,1.0,82,0.00,,,0.02,Wunderground v.1.15,2013-07-18 00:51:00,
2013-07-17 20:56:00,81.1,75.1,30.07,SW,231,0.0,1.0,82,0.00,,,0.02,Wunderground v.1.15,2013-07-18 00:56:00,
2013-07-17 20:57:00,81.1,75.1,30.07,SW,231,0.0,1.0,82,0.00,,,0.02,Wunderground v.1.15,2013-07-18 00:57:00,
2013-07-17 20:58:00,81.1,75.1,30.07,SW,232,0.0,1.0,82,0.00,,,0.02,Wunderground v.1.15,2013-07-18 00:58:00,
2013-07-17 20:59:00,81.1,75.1,30.07,SW,232,0.0,1.0,82,0.00,,,0.02,Wunderground v.1.15,2013-07-18 00:59:00,
2013-07-17 21:01:00,81.1,75.1,30.07,SW,232,0.0,1.0,82,0.00,,,0.02,Wunderground v.1.15,2013-07-18 01:01:00,
2013-07-17 21:03:00,81.0,75.0,30.07,SW,232,0.0,1.0,82,0.00,,,0.02,Wunderground v.1.15,2013-07-18 01:03:00,
2013-07-17 21:04:00,81.0,75.0,30.07,SW,231,0.0,1.0,82,0.00,,,0.02,Wunderground v.1.15,2013-07-18 01:04:00,
2013-07-17 21:07:00,81.0,75.0,30.07,SW,229,0.0,1.0,82,0.00,,,0.02,Wunderground v.1.15,2013-07-18 01:07:00,
2013-07-17 21:08:00,81.0,75.3,30.07,SW,229,0.0,1.0,83,0.00,,,0.02,Wunderground v.1.15,2013-07-18 01:08:00,
2013-07-17 21:09:00,81.0,75.3,30.07,SW,229,0.0,1.0,83,0.00,,,0.02,Wunderground v.1.15,2013-07-18 01:09:00,
2013-07-17 21:10:00,81.0,75.3,30.07,SW,229,0.0,1.0,83,0.00,,,0.02,Wunderground v.1.15,2013-07-18 01:10:00,
2013-07-17 21:13:00,81.1,75.4,30.07,SW,235,0.0,1.0,83,0.00,,,0.02,Wunderground v.1.15,2013-07-18 01:13:00,
2013-07-17 21:14:00,81.2,75.2,30.07,SW,235,0.0,1.0,82,0.00,,,0.02,Wunderground v.1.15,2013-07-18 01:14:00,
2013-07-17 21:16:00,81.2,75.2,30.07,SW,235,0.0,1.0,82,0.00,,,0.02,Wunderground v.1.15,2013-07-18 01:16:00,
2013-07-17 21:18:00,81.2,75.2,30.07,WSW,255,0.0,1.0,82,0.00,,,0.02,Wunderground v.1.15,2013-07-18 01:18:00,
2013-07-17 21:19:00,81.3,75.3,30.07,WSW,254,0.0,1.0,82,0.00,,,0.02,Wunderground v.1.15,2013-07-18 01:19:00,
2013-07-17 21:20:00,81.3,75.3,30.07,WSW,254,0.0,1.0,82,0.00,,,0.02,Wunderground v.1.15,2013-07-18 01:20:00,
2013-07-17 21:22:00,81.3,75.3,30.07,SW,226,0.0,1.0,82,0.00,,,0.02,Wunderground v.1.15,2013-07-18 01:22:00,
2013-07-17 21:25:00,81.3,75.3,30.07,SW,226,0.0,1.0,82,0.00,,,0.02,Wunderground v.1.15,2013-07-18 01:25:00,
2013-07-17 21:26:00,81.4,75.4,30.07,SW,228,0.0,1.0,82,0.00,,,0.02,Wunderground v.1.15,2013-07-18 01:26:00,
2013-07-17 21:27:00,81.4,75.4,30.07,WSW,239,0.0,1.0,82,0.00,,,0.02,Wunderground v.1.15,2013-07-18 01:27:00,
2013-07-17 21:29:00,81.5,75.5,30.07,West,262,0.0,1.0,82,0.00,,,0.02,Wunderground v.1.15,2013-07-18 01:29:00,
2013-07-17 21:31:00,81.6,75.6,30.07,WSW,238,0.0,1.0,82,0.00,,,0.02,Wunderground v.1.15,2013-07-18 01:31:00,
2013-07-17 21:32:00,81.7,75.7,30.07,SW,235,0.0,1.0,82,0.00,,,0.02,Wunderground v.1.15,2013-07-18 01:32:00,
2013-07-17 21:34:00,81.7,75.3,30.07,WSW,238,0.0,1.0,81,0.00,,,0.02,Wunderground v.1.15,2013-07-18 01:34:00,
2013-07-17 21:38:00,81.9,75.5,30.07,SW,226,0.0,1.0,81,0.00,,,0.02,Wunderground v.1.15,2013-07-18 01:38:00,
2013-07-17 21:40:00,81.9,75.5,30.07,West,280,0.0,1.0,81,0.00,,,0.02,Wunderground v.1.15,2013-07-18 01:40:00,
2013-07-17 21:41:00,81.9,75.5,30.07,SW,226,0.0,1.0,81,0.00,,,0.02,Wunderground v.1.15,2013-07-18 01:41:00,
2013-07-17 21:43:00,82.0,75.6,30.07,West,262,0.0,1.0,81,0.00,,,0.02,Wunderground v.1.15,2013-07-18 01:43:00,
2013-07-17 21:46:00,82.1,75.7,30.07,SW,224,0.0,1.0,81,0.00,,,0.02,Wunderground v.1.15,2013-07-18 01:46:00,
2013-07-17 21:48:00,82.1,75.7,30.08,SW,236,0.0,1.0,81,0.00,,,0.02,Wunderground v.1.15,2013-07-18 01:48:00,
2013-07-17 21:49:00,82.1,75.7,30.08,WSW,238,0.0,1.0,81,0.00,,,0.02,Wunderground v.1.15,2013-07-18 01:49:00,
2013-07-17 21:51:00,82.1,75.7,30.08,WSW,238,0.0,1.0,81,0.00,,,0.02,Wunderground v.1.15,2013-07-18 01:51:00,
2013-07-17 21:53:00,82.1,75.7,30.08,WSW,238,0.0,1.0,81,0.00,,,0.02,Wunderground v.1.15,2013-07-18 01:53:00,
2013-07-17 21:54:00,82.0,75.6,30.08,WSW,241,0.0,1.0,81,0.00,,,0.02,Wunderground v.1.15,2013-07-18 01:54:00,
2013-07-17 21:56:00,82.0,75.6,30.08,WSW,257,0.0,1.0,81,0.00,,,0.02,Wunderground v.1.15,2013-07-18 01:56:00,
2013-07-17 21:57:00,81.9,75.5,30.08,WSW,257,0.0,1.0,81,0.00,,,0.02,Wunderground v.1.15,2013-07-18 01:57:00,
2013-07-17 21:59:00,81.8,75.4,30.08,WSW,257,0.0,1.0,81,0.00,,,0.02,Wunderground v.1.15,2013-07-18 01:59:00,
2013-07-17 22:00:00,81.8,75.8,30.08,WSW,252,0.0,1.0,82,0.00,,,0.02,Wunderground v.1.15,2013-07-18 02:00:00,
2013-07-17 22:02:00,81.7,75.7,30.08,WSW,249,0.0,1.0,82,0.00,,,0.02,Wunderground v.1.15,2013-07-18 02:02:00,
2013-07-17 22:05:00,81.7,75.7,30.08,SW,228,0.0,1.0,82,0.00,,,0.02,Wunderground v.1.15,2013-07-18 02:05:00,
2013-07-17 22:07:00,81.7,75.7,30.08,SW,226,0.0,1.0,82,0.00,,,0.02,Wunderground v.1.15,2013-07-18 02:07:00,
2013-07-17 22:09:00,81.7,75.7,30.09,West,267,0.0,1.0,82,0.00,,,0.02,Wunderground v.1.15,2013-07-18 02:09:00,
2013-07-17 22:11:00,81.7,75.7,30.09,SSW,212,0.0,1.0,82,0.00,,,0.02,Wunderground v.1.15,2013-07-18 02:11:00,
2013-07-17 22:12:00,81.7,75.7,30.09,SW,221,0.0,1.0,82,0.00,,,0.02,Wunderground v.1.15,2013-07-18 02:12:00,
2013-07-17 22:15:00,81.7,75.7,30.09,SW,220,0.0,1.0,82,0.00,,,0.02,Wunderground v.1.15,2013-07-18 02:15:00,
2013-07-17 22:18:00,81.6,75.6,30.09,SW,221,0.0,1.0,82,0.00,,,0.02,Wunderground v.1.15,2013-07-18 02:18:00,
2013-07-17 22:19:00,81.5,75.5,30.08,West,260,0.0,2.0,82,0.00,,,0.02,Wunderground v.1.15,2013-07-18 02:19:00,
2013-07-17 22:21:00,81.5,75.5,30.09,WSW,245,0.0,2.0,82,0.00,,,0.02,Wunderground v.1.15,2013-07-18 02:21:00,
2013-07-17 22:23:00,81.6,75.6,30.09,SW,222,0.0,2.0,82,0.00,,,0.02,Wunderground v.1.15,2013-07-18 02:23:00,
2013-07-17 22:24:00,81.6,75.6,30.09,SW,221,0.0,2.0,82,0.00,,,0.02,Wunderground v.1.15,2013-07-18 02:24:00,
2013-07-17 22:26:00,81.6,75.6,30.09,SW,221,0.0,2.0,82,0.00,,,0.02,Wunderground v.1.15,2013-07-18 02:26:00,
2013-07-17 22:29:00,81.6,75.6,30.09,WSW,243,0.0,2.0,82,0.00,,,0.02,Wunderground v.1.15,2013-07-18 02:29:00,
2013-07-17 22:31:00,81.6,75.6,30.09,SW,236,1.0,1.0,82,0.00,,,0.02,Wunderground v.1.15,2013-07-18 02:31:00,
2013-07-17 22:32:00,81.6,75.6,30.09,WSW,250,1.0,1.0,82,0.00,,,0.02,Wunderground v.1.15,2013-07-18 02:32:00,
2013-07-17 22:36:00,81.6,75.6,30.09,SW,229,1.0,1.0,82,0.00,,,0.02,Wunderground v.1.15,2013-07-18 02:36:00,
2013-07-17 22:39:00,81.6,75.6,30.09,WSW,245,1.0,1.0,82,0.00,,,0.02,Wunderground v.1.15,2013-07-18 02:39:00,
2013-07-17 22:42:00,81.6,75.6,30.09,West,274,1.0,1.0,82,0.00,,,0.02,Wunderground v.1.15,2013-07-18 02:42:00,
2013-07-17 22:43:00,81.6,75.6,30.09,WSW,250,1.0,1.0,82,0.00,,,0.02,Wunderground v.1.15,2013-07-18 02:43:00,
2013-07-17 22:46:00,81.6,75.6,30.09,WSW,238,1.0,1.0,82,0.00,,,0.02,Wunderground v.1.15,2013-07-18 02:46:00,
2013-07-17 22:47:00,81.6,75.6,30.09,WSW,238,1.0,1.0,82,0.00,,,0.02,Wunderground v.1.15,2013-07-18 02:47:00,
2013-07-17 22:49:00,81.5,75.5,30.09,SW,219,0.0,1.0,82,0.00,,,0.02,Wunderground v.1.15,2013-07-18 02:49:00,
2013-07-17 22:51:00,81.5,75.8,30.09,SSW,203,0.0,1.0,83,0.00,,,0.02,Wunderground v.1.15,2013-07-18 02:51:00,
2013-07-17 22:52:00,81.5,75.8,30.09,SW,233,0.0,1.0,83,0.00,,,0.02,Wunderground v.1.15,2013-07-18 02:52:00,
2013-07-17 22:54:00,81.5,75.8,30.09,SW,225,0.0,1.0,83,0.00,,,0.02,Wunderground v.1.15,2013-07-18 02:54:00,
2013-07-17 22:57:00,81.5,75.8,30.09,SW,225,0.0,1.0,83,0.00,,,0.02,Wunderground v.1.15,2013-07-18 02:57:00,
2013-07-17 22:58:00,81.4,75.7,30.09,WSW,237,0.0,1.0,83,0.00,,,0.02,Wunderground v.1.15,2013-07-18 02:58:00,
2013-07-17 22:59:00,81.4,75.7,30.09,SW,233,0.0,1.0,83,0.00,,,0.02,Wunderground v.1.15,2013-07-18 02:59:00,
2013-07-17 23:02:00,81.5,75.8,30.09,SW,233,0.0,1.0,83,0.00,,,0.02,Wunderground v.1.15,2013-07-18 03:02:00,
2013-07-17 23:03:00,81.4,75.7,30.09,West,259,0.0,1.0,83,0.00,,,0.02,Wunderground v.1.15,2013-07-18 03:03:00,
2013-07-17 23:04:00,81.5,75.8,30.09,WSW,244,0.0,1.0,83,0.00,,,0.02,Wunderground v.1.15,2013-07-18 03:04:00,
2013-07-17 23:06:00,81.5,75.8,30.09,West,260,0.0,1.0,83,0.00,,,0.02,Wunderground v.1.15,2013-07-18 03:06:00,
2013-07-17 23:07:00,81.5,75.8,30.09,West,259,0.0,1.0,83,0.00,,,0.02,Wunderground v.1.15,2013-07-18 03:07:00,
2013-07-17 23:08:00,81.5,75.8,30.09,WSW,253,0.0,1.0,83,0.00,,,0.02,Wunderground v.1.15,2013-07-18 03:08:00,
2013-07-17 23:10:00,81.6,75.9,30.09,WSW,252,0.0,1.0,83,0.00,,,0.02,Wunderground v.1.15,2013-07-18 03:10:00,
2013-07-17 23:12:00,81.6,75.9,30.09,WSW,253,0.0,1.0,83,0.00,,,0.02,Wunderground v.1.15,2013-07-18 03:12:00,
2013-07-17 23:13:00,81.6,75.9,30.09,WSW,245,0.0,1.0,83,0.00,,,0.02,Wunderground v.1.15,2013-07-18 03:13:00,
2013-07-17 23:15:00,81.6,75.9,30.09,West,263,0.0,1.0,83,0.00,,,0.02,Wunderground v.1.15,2013-07-18 03:15:00,
2013-07-17 23:16:00,81.6,75.9,30.09,West,262,0.0,1.0,83,0.00,,,0.02,Wunderground v.1.15,2013-07-18 03:16:00,
2013-07-17 23:19:00,81.6,75.9,30.09,SW,217,1.0,1.0,83,0.00,,,0.02,Wunderground v.1.15,2013-07-18 03:19:00,
2013-07-17 23:21:00,81.6,75.9,30.09,SW,225,1.0,1.0,83,0.00,,,0.02,Wunderground v.1.15,2013-07-18 03:21:00,
2013-07-17 23:22:00,81.6,75.9,30.09,SW,225,1.0,1.0,83,0.00,,,0.02,Wunderground v.1.15,2013-07-18 03:22:00,
2013-07-17 23:24:00,81.5,75.8,30.09,SW,226,0.0,1.0,83,0.00,,,0.02,Wunderground v.1.15,2013-07-18 03:24:00,
2013-07-17 23:26:00,81.4,75.7,30.09,WSW,243,0.0,1.0,83,0.00,,,0.02,Wunderground v.1.15,2013-07-18 03:26:00,
2013-07-17 23:27:00,81.4,75.7,30.09,SSW,193,0.0,1.0,83,0.00,,,0.02,Wunderground v.1.15,2013-07-18 03:27:00,
2013-07-17 23:28:00,81.4,75.7,30.09,SSW,195,0.0,1.0,83,0.00,,,0.02,Wunderground v.1.15,2013-07-18 03:28:00,
2013-07-17 23:29:00,81.3,75.6,30.09,SW,226,0.0,1.0,83,0.00,,,0.02,Wunderground v.1.15,2013-07-18 03:29:00,
2013-07-17 23:35:00,81.2,75.5,30.10,WSW,252,1.0,1.0,83,0.00,,,0.02,Wunderground v.1.15,2013-07-18 03:35:00,
2013-07-17 23:36:00,81.2,75.5,30.09,SW,232,1.0,1.0,83,0.00,,,0.02,Wunderground v.1.15,2013-07-18 03:36:00,
2013-07-17 23:37:00,81.1,75.4,30.10,SW,233,1.0,1.0,83,0.00,,,0.02,Wunderground v.1.15,2013-07-18 03:37:00,
2013-07-17 23:41:00,81.0,75.3,30.10,SSW,197,1.0,1.0,83,0.00,,,0.02,Wunderground v.1.15,2013-07-18 03:41:00,
2013-07-17 23:43:00,81.0,75.7,30.09,WSW,253,1.0,1.0,84,0.00,,,0.02,Wunderground v.1.15,2013-07-18 03:43:00,
2013-07-17 23:44:00,81.0,75.7,30.09,WSW,253,1.0,1.0,84,0.00,,,0.02,Wunderground v.1.15,2013-07-18 03:44:00,
2013-07-17 23:47:00,80.9,75.6,30.09,WNW,288,1.0,1.0,84,0.00,,,0.02,Wunderground v.1.15,2013-07-18 03:47:00,
2013-07-17 23:48:00,80.8,75.5,30.09,WSW,252,1.0,1.0,84,0.00,,,0.02,Wunderground v.1.15,2013-07-18 03:48:00,
2013-07-17 23:52:00,80.8,75.5,30.09,SW,222,0.0,1.0,84,0.00,,,0.02,Wunderground v.1.15,2013-07-18 03:52:00,
2013-07-17 23:53:00,80.7,75.4,30.09,SW,222,0.0,1.0,84,0.00,,,0.02,Wunderground v.1.15,2013-07-18 03:53:00,
2013-07-17 23:54:00,80.7,75.4,30.09,SW,222,0.0,1.0,84,0.00,,,0.02,Wunderground v.1.15,2013-07-18 03:54:00,
2013-07-17 23:56:00,80.6,75.3,30.09,WNW,288,0.0,2.0,84,0.00,,,0.02,Wunderground v.1.15,2013-07-18 03:56:00,
2013-07-17 23:58:00,80.5,75.2,30.09,West,266,0.0,2.0,84,0.00,,,0.02,Wunderground v.1.15,2013-07-18 03:58:00,
2013-07-17 23:59:00,80.5,75.2,30.09,West,267,0.0,2.0,84,0.00,,,0.02,Wunderground v.1.15,2013-07-18 03:59:00,